Multibeam Report for NBP1403


Ship Name: Nathaniel B. Palmer
Chief Scientist: Talley, Lynne
Scripps Institution of Oceanography
Source Organization: Marine Geoscience Data System (MGDS)
Start Date: 2014-03-20
End Date: 2014-05-05


View ISO Metadata

Visit the full NCEI Bathymetry Viewer


Multibeam Bathymetry

Cruise Details

Project: Climate variability and predictability (CLIVAR)
Instrument: Kongsberg EM120

Data Quality

Number of Files: 1113
Number of Records: 250377
BATHYMETRY DATA Quantity Percentage
Number of Beams 47812457 100%
Number of Good Beams 37523522 78.48%
Number of Zero Beams 10288935 21.52%
Number of Flagged Beams 0 0%
AMPLITUDE DATA Quantity Percentage
Number of Beams 47812457 100%
Number of Good Beams 37523522 78.48%
Number of Zero Beams 10288935 21.52%
Number of Flagged Beams 0 0%
SIDESCAN DATA Quantity Percentage
Number of Pixels 256334848 100%
Number of Good Pixels 57224937 22.32%
Number of Zero Pixels 0 0%
Number of Flagged Pixels 199109911 77.68%

Navigation Totals

Total Time: 1066.8638 hours
Total Track Length: 11537.5112 km
Average Speed: 10.814 km/hr (5.8391 knots)

Cruise Bounds

Northern Extent: -15.004704
Southern Extent: -67.01515
Western Extent: 149.58357
Eastern Extent: -149.16618

Limits

Minimum Sonar Depth 3.87 Maximum Sonar Depth 8.9
Minimum Altitude 0 Maximum Altitude 6782.3999
Minimum Depth 1266.8101 Maximum Depth 7142.3501
Minimum Amplitude 0 Maximum Amplitude 31
Minimum Sidescan 0 Maximum Sidescan 63

File Information

Full Resolution Bathymetry as collected (raw): 1110

Files File Size Description
0000_20140320_220551_raw.all.mb56.gz 9.41MB Simrad multibeam vendor format
0001_20140320_230551_raw.all.mb56.gz 9.28MB Simrad multibeam vendor format
0002_20140321_000551_raw.all.mb56.gz 6.72MB Simrad multibeam vendor format
0003_20140321_004954_raw.all.mb56.gz 43.7KB Simrad multibeam vendor format
0004_20140321_005010_raw.all.mb56.gz 144.1KB Simrad multibeam vendor format
0005_20140321_005106_raw.all.mb56.gz 47.0KB Simrad multibeam vendor format
0006_20140321_005124_raw.all.mb56.gz 74.9KB Simrad multibeam vendor format
0007_20140321_005151_raw.all.mb56.gz 57.3KB Simrad multibeam vendor format
0008_20140321_005208_raw.all.mb56.gz 31.4KB Simrad multibeam vendor format
0009_20140321_005219_raw.all.mb56.gz 8.1KB Simrad multibeam vendor format
0010_20140321_005221_raw.all.mb56.gz 8.39MB Simrad multibeam vendor format
0011_20140321_015221_raw.all.mb56.gz 8.44MB Simrad multibeam vendor format
0012_20140321_025221_raw.all.mb56.gz 8.44MB Simrad multibeam vendor format
0013_20140321_035221_raw.all.mb56.gz 8.88MB Simrad multibeam vendor format
0014_20140321_045221_raw.all.mb56.gz 8.63MB Simrad multibeam vendor format
0015_20140321_055221_raw.all.mb56.gz 8.66MB Simrad multibeam vendor format
0016_20140321_065221_raw.all.mb56.gz 8.63MB Simrad multibeam vendor format
0017_20140321_075221_raw.all.mb56.gz 8.71MB Simrad multibeam vendor format
0018_20140321_085221_raw.all.mb56.gz 8.77MB Simrad multibeam vendor format
0019_20140321_095221_raw.all.mb56.gz 8.73MB Simrad multibeam vendor format
0020_20140321_105221_raw.all.mb56.gz 8.81MB Simrad multibeam vendor format
0021_20140321_115221_raw.all.mb56.gz 8.74MB Simrad multibeam vendor format
0022_20140321_125221_raw.all.mb56.gz 8.79MB Simrad multibeam vendor format
0023_20140321_135221_raw.all.mb56.gz 8.76MB Simrad multibeam vendor format
0024_20140321_145221_raw.all.mb56.gz 8.56MB Simrad multibeam vendor format
0025_20140321_155221_raw.all.mb56.gz 8.55MB Simrad multibeam vendor format
0026_20140321_165221_raw.all.mb56.gz 8.43MB Simrad multibeam vendor format
0027_20140321_175221_raw.all.mb56.gz 8.71MB Simrad multibeam vendor format
0028_20140321_185221_raw.all.mb56.gz 8.69MB Simrad multibeam vendor format
0029_20140321_195221_raw.all.mb56.gz 8.64MB Simrad multibeam vendor format
0030_20140321_205221_raw.all.mb56.gz 8.63MB Simrad multibeam vendor format
0031_20140321_215221_raw.all.mb56.gz 8.73MB Simrad multibeam vendor format
0032_20140321_225221_raw.all.mb56.gz 8.67MB Simrad multibeam vendor format
0033_20140321_235221_raw.all.mb56.gz 8.56MB Simrad multibeam vendor format
0034_20140322_005221_raw.all.mb56.gz 8.68MB Simrad multibeam vendor format
0035_20140322_015221_raw.all.mb56.gz 8.62MB Simrad multibeam vendor format
0036_20140322_025221_raw.all.mb56.gz 8.54MB Simrad multibeam vendor format
0037_20140322_035221_raw.all.mb56.gz 8.63MB Simrad multibeam vendor format
0038_20140322_045221_raw.all.mb56.gz 8.64MB Simrad multibeam vendor format
0039_20140322_055221_raw.all.mb56.gz 8.68MB Simrad multibeam vendor format
0040_20140322_065221_raw.all.mb56.gz 8.64MB Simrad multibeam vendor format
0041_20140322_075221_raw.all.mb56.gz 8.60MB Simrad multibeam vendor format
0042_20140322_085221_raw.all.mb56.gz 8.61MB Simrad multibeam vendor format
0043_20140322_095221_raw.all.mb56.gz 8.63MB Simrad multibeam vendor format
0044_20140322_105221_raw.all.mb56.gz 8.58MB Simrad multibeam vendor format
0045_20140322_115221_raw.all.mb56.gz 8.67MB Simrad multibeam vendor format
0046_20140322_125220_raw.all.mb56.gz 8.65MB Simrad multibeam vendor format
0047_20140322_135220_raw.all.mb56.gz 8.67MB Simrad multibeam vendor format
0048_20140322_145220_raw.all.mb56.gz 8.72MB Simrad multibeam vendor format
0049_20140322_155220_raw.all.mb56.gz 8.77MB Simrad multibeam vendor format
0050_20140322_165220_raw.all.mb56.gz 8.75MB Simrad multibeam vendor format
0051_20140322_175220_raw.all.mb56.gz 8.79MB Simrad multibeam vendor format
0052_20140322_185220_raw.all.mb56.gz 8.67MB Simrad multibeam vendor format
0053_20140322_195220_raw.all.mb56.gz 8.75MB Simrad multibeam vendor format
0054_20140322_205220_raw.all.mb56.gz 8.80MB Simrad multibeam vendor format
0055_20140322_215220_raw.all.mb56.gz 8.78MB Simrad multibeam vendor format
0056_20140322_225220_raw.all.mb56.gz 8.78MB Simrad multibeam vendor format
0057_20140322_235220_raw.all.mb56.gz 8.77MB Simrad multibeam vendor format
0058_20140323_005220_raw.all.mb56.gz 8.61MB Simrad multibeam vendor format
0059_20140323_015220_raw.all.mb56.gz 0.78MB Simrad multibeam vendor format
0060_20140323_015751_raw.all.mb56.gz 8.64MB Simrad multibeam vendor format
0061_20140323_025751_raw.all.mb56.gz 6.79MB Simrad multibeam vendor format
0062_20140323_034523_raw.all.mb56.gz 92.5KB Simrad multibeam vendor format
0063_20140323_034558_raw.all.mb56.gz 8.60MB Simrad multibeam vendor format
0064_20140323_044558_raw.all.mb56.gz 5.96MB Simrad multibeam vendor format
0065_20140323_052753_raw.all.mb56.gz 2.27MB Simrad multibeam vendor format
0066_20140323_054348_raw.all.mb56.gz 17.4KB Simrad multibeam vendor format
0067_20140323_054354_raw.all.mb56.gz 8.53MB Simrad multibeam vendor format
0068_20140323_064354_raw.all.mb56.gz 8.38MB Simrad multibeam vendor format
0069_20140323_074354_raw.all.mb56.gz 8.25MB Simrad multibeam vendor format
0070_20140323_084354_raw.all.mb56.gz 8.30MB Simrad multibeam vendor format
0071_20140323_094354_raw.all.mb56.gz 8.33MB Simrad multibeam vendor format
0072_20140323_104354_raw.all.mb56.gz 8.27MB Simrad multibeam vendor format
0073_20140323_114354_raw.all.mb56.gz 8.32MB Simrad multibeam vendor format
0074_20140323_124354_raw.all.mb56.gz 8.29MB Simrad multibeam vendor format
0075_20140323_134354_raw.all.mb56.gz 8.33MB Simrad multibeam vendor format
0076_20140323_144354_raw.all.mb56.gz 8.27MB Simrad multibeam vendor format
0077_20140323_154354_raw.all.mb56.gz 8.28MB Simrad multibeam vendor format
0078_20140323_164354_raw.all.mb56.gz 8.76MB Simrad multibeam vendor format
0079_20140323_174354_raw.all.mb56.gz 8.72MB Simrad multibeam vendor format
0080_20140323_184354_raw.all.mb56.gz 8.25MB Simrad multibeam vendor format
0081_20140323_194354_raw.all.mb56.gz 8.35MB Simrad multibeam vendor format
0082_20140323_204354_raw.all.mb56.gz 8.44MB Simrad multibeam vendor format
0083_20140323_214354_raw.all.mb56.gz 8.37MB Simrad multibeam vendor format
0084_20140323_224354_raw.all.mb56.gz 8.34MB Simrad multibeam vendor format
0085_20140323_234354_raw.all.mb56.gz 8.86MB Simrad multibeam vendor format
0086_20140324_004354_raw.all.mb56.gz 8.33MB Simrad multibeam vendor format
0087_20140324_014354_raw.all.mb56.gz 8.36MB Simrad multibeam vendor format
0088_20140324_024354_raw.all.mb56.gz 8.35MB Simrad multibeam vendor format
0089_20140324_034354_raw.all.mb56.gz 8.63MB Simrad multibeam vendor format
0090_20140324_044354_raw.all.mb56.gz 8.84MB Simrad multibeam vendor format
0091_20140324_054354_raw.all.mb56.gz 8.82MB Simrad multibeam vendor format
0092_20140324_064354_raw.all.mb56.gz 8.73MB Simrad multibeam vendor format
0093_20140324_074354_raw.all.mb56.gz 8.80MB Simrad multibeam vendor format
0094_20140324_084354_raw.all.mb56.gz 8.77MB Simrad multibeam vendor format
0095_20140324_094354_raw.all.mb56.gz 8.67MB Simrad multibeam vendor format
0096_20140324_104354_raw.all.mb56.gz 8.44MB Simrad multibeam vendor format
0097_20140324_114354_raw.all.mb56.gz 8.45MB Simrad multibeam vendor format
0098_20140324_124354_raw.all.mb56.gz 8.55MB Simrad multibeam vendor format
0099_20140324_134354_raw.all.mb56.gz 8.83MB Simrad multibeam vendor format
0100_20140324_144354_raw.all.mb56.gz 8.77MB Simrad multibeam vendor format
0101_20140324_154354_raw.all.mb56.gz 8.48MB Simrad multibeam vendor format
0102_20140324_164354_raw.all.mb56.gz 8.40MB Simrad multibeam vendor format
0103_20140324_174354_raw.all.mb56.gz 8.53MB Simrad multibeam vendor format
0104_20140324_184354_raw.all.mb56.gz 8.61MB Simrad multibeam vendor format
0105_20140324_194354_raw.all.mb56.gz 8.60MB Simrad multibeam vendor format
0106_20140324_204354_raw.all.mb56.gz 8.67MB Simrad multibeam vendor format
0107_20140324_214354_raw.all.mb56.gz 8.67MB Simrad multibeam vendor format
0108_20140324_224354_raw.all.mb56.gz 8.69MB Simrad multibeam vendor format
0109_20140324_234354_raw.all.mb56.gz 8.70MB Simrad multibeam vendor format
0110_20140325_004353_raw.all.mb56.gz 8.71MB Simrad multibeam vendor format
0111_20140325_014353_raw.all.mb56.gz 8.64MB Simrad multibeam vendor format
0112_20140325_024353_raw.all.mb56.gz 8.45MB Simrad multibeam vendor format
0113_20140325_034353_raw.all.mb56.gz 8.45MB Simrad multibeam vendor format
0114_20140325_044353_raw.all.mb56.gz 8.43MB Simrad multibeam vendor format
0115_20140325_054353_raw.all.mb56.gz 8.33MB Simrad multibeam vendor format
0116_20140325_064353_raw.all.mb56.gz 8.40MB Simrad multibeam vendor format
0117_20140325_074353_raw.all.mb56.gz 8.44MB Simrad multibeam vendor format
0118_20140325_084353_raw.all.mb56.gz 8.43MB Simrad multibeam vendor format
0119_20140325_094353_raw.all.mb56.gz 8.37MB Simrad multibeam vendor format
0120_20140325_104353_raw.all.mb56.gz 8.27MB Simrad multibeam vendor format
0121_20140325_114353_raw.all.mb56.gz 8.40MB Simrad multibeam vendor format
0122_20140325_124353_raw.all.mb56.gz 8.26MB Simrad multibeam vendor format
0123_20140325_134353_raw.all.mb56.gz 8.34MB Simrad multibeam vendor format
0124_20140325_144353_raw.all.mb56.gz 8.39MB Simrad multibeam vendor format
0125_20140325_154353_raw.all.mb56.gz 8.39MB Simrad multibeam vendor format
0126_20140325_164357_raw.all.mb56.gz 8.34MB Simrad multibeam vendor format
0127_20140325_174357_raw.all.mb56.gz 8.33MB Simrad multibeam vendor format
0128_20140325_184358_raw.all.mb56.gz 8.26MB Simrad multibeam vendor format
0129_20140325_194358_raw.all.mb56.gz 8.38MB Simrad multibeam vendor format
0130_20140325_204358_raw.all.mb56.gz 8.27MB Simrad multibeam vendor format
0131_20140325_214358_raw.all.mb56.gz 8.36MB Simrad multibeam vendor format
0132_20140325_224358_raw.all.mb56.gz 8.29MB Simrad multibeam vendor format
0133_20140325_234359_raw.all.mb56.gz 8.39MB Simrad multibeam vendor format
0134_20140326_004359_raw.all.mb56.gz 8.18MB Simrad multibeam vendor format
0135_20140326_014359_raw.all.mb56.gz 8.12MB Simrad multibeam vendor format
0136_20140326_024359_raw.all.mb56.gz 8.25MB Simrad multibeam vendor format
0137_20140326_034359_raw.all.mb56.gz 8.26MB Simrad multibeam vendor format
0138_20140326_044400_raw.all.mb56.gz 8.19MB Simrad multibeam vendor format
0139_20140326_054400_raw.all.mb56.gz 8.23MB Simrad multibeam vendor format
0140_20140326_064400_raw.all.mb56.gz 8.46MB Simrad multibeam vendor format
0141_20140326_074400_raw.all.mb56.gz 8.47MB Simrad multibeam vendor format
0142_20140326_084400_raw.all.mb56.gz 8.45MB Simrad multibeam vendor format
0143_20140326_094400_raw.all.mb56.gz 8.44MB Simrad multibeam vendor format
0144_20140326_104400_raw.all.mb56.gz 8.43MB Simrad multibeam vendor format
0145_20140326_114400_raw.all.mb56.gz 8.43MB Simrad multibeam vendor format
0146_20140326_124400_raw.all.mb56.gz 8.22MB Simrad multibeam vendor format
0147_20140326_134400_raw.all.mb56.gz 8.23MB Simrad multibeam vendor format
0148_20140326_144400_raw.all.mb56.gz 8.27MB Simrad multibeam vendor format
0149_20140326_154400_raw.all.mb56.gz 8.19MB Simrad multibeam vendor format
0150_20140326_164400_raw.all.mb56.gz 8.25MB Simrad multibeam vendor format
0151_20140326_174400_raw.all.mb56.gz 8.23MB Simrad multibeam vendor format
0152_20140326_184400_raw.all.mb56.gz 8.21MB Simrad multibeam vendor format
0153_20140326_194400_raw.all.mb56.gz 8.17MB Simrad multibeam vendor format
0154_20140326_204400_raw.all.mb56.gz 8.16MB Simrad multibeam vendor format
0155_20140326_214400_raw.all.mb56.gz 8.15MB Simrad multibeam vendor format
0156_20140326_224400_raw.all.mb56.gz 0.84MB Simrad multibeam vendor format
0157_20140326_225014_raw.all.mb56.gz 8.09MB Simrad multibeam vendor format
0158_20140326_235013_raw.all.mb56.gz 8.21MB Simrad multibeam vendor format
0159_20140327_005013_raw.all.mb56.gz 8.23MB Simrad multibeam vendor format
0160_20140327_015013_raw.all.mb56.gz 8.23MB Simrad multibeam vendor format
0161_20140327_025013_raw.all.mb56.gz 8.20MB Simrad multibeam vendor format
0162_20140327_035013_raw.all.mb56.gz 8.23MB Simrad multibeam vendor format
0163_20140327_045013_raw.all.mb56.gz 8.22MB Simrad multibeam vendor format
0164_20140327_055013_raw.all.mb56.gz 8.24MB Simrad multibeam vendor format
0165_20140327_065013_raw.all.mb56.gz 8.03MB Simrad multibeam vendor format
0166_20140327_075013_raw.all.mb56.gz 8.07MB Simrad multibeam vendor format
0167_20140327_085013_raw.all.mb56.gz 8.19MB Simrad multibeam vendor format
0168_20140327_095013_raw.all.mb56.gz 8.14MB Simrad multibeam vendor format
0169_20140327_105013_raw.all.mb56.gz 8.05MB Simrad multibeam vendor format
0170_20140327_115013_raw.all.mb56.gz 8.08MB Simrad multibeam vendor format
0171_20140327_125013_raw.all.mb56.gz 8.14MB Simrad multibeam vendor format
0172_20140327_135013_raw.all.mb56.gz 8.11MB Simrad multibeam vendor format
0173_20140327_145013_raw.all.mb56.gz 8.12MB Simrad multibeam vendor format
0174_20140327_155013_raw.all.mb56.gz 8.09MB Simrad multibeam vendor format
0175_20140327_165013_raw.all.mb56.gz 8.10MB Simrad multibeam vendor format
0176_20140327_175013_raw.all.mb56.gz 8.05MB Simrad multibeam vendor format
0177_20140327_185013_raw.all.mb56.gz 8.04MB Simrad multibeam vendor format
0178_20140327_195013_raw.all.mb56.gz 8.16MB Simrad multibeam vendor format
0179_20140327_205013_raw.all.mb56.gz 8.06MB Simrad multibeam vendor format
0180_20140327_215013_raw.all.mb56.gz 8.35MB Simrad multibeam vendor format
0181_20140327_225013_raw.all.mb56.gz 8.17MB Simrad multibeam vendor format
0182_20140327_235013_raw.all.mb56.gz 8.13MB Simrad multibeam vendor format
0183_20140328_005013_raw.all.mb56.gz 1.78MB Simrad multibeam vendor format
0184_20140328_010201_raw.all.mb56.gz 9.84MB Simrad multibeam vendor format
0185_20140328_020201_raw.all.mb56.gz 9.84MB Simrad multibeam vendor format
0186_20140328_030201_raw.all.mb56.gz 9.82MB Simrad multibeam vendor format
0187_20140328_040201_raw.all.mb56.gz 9.33MB Simrad multibeam vendor format
0188_20140328_050201_raw.all.mb56.gz 9.00MB Simrad multibeam vendor format
0189_20140328_060201_raw.all.mb56.gz 8.34MB Simrad multibeam vendor format
0190_20140328_070201_raw.all.mb56.gz 8.26MB Simrad multibeam vendor format
0191_20140328_080201_raw.all.mb56.gz 8.51MB Simrad multibeam vendor format
0192_20140328_090201_raw.all.mb56.gz 9.41MB Simrad multibeam vendor format
0193_20140328_100201_raw.all.mb56.gz 9.40MB Simrad multibeam vendor format
0194_20140328_110201_raw.all.mb56.gz 9.33MB Simrad multibeam vendor format
0195_20140328_120201_raw.all.mb56.gz 9.34MB Simrad multibeam vendor format
0196_20140328_130201_raw.all.mb56.gz 9.36MB Simrad multibeam vendor format
0197_20140328_140201_raw.all.mb56.gz 9.21MB Simrad multibeam vendor format
0198_20140328_150201_raw.all.mb56.gz 9.55MB Simrad multibeam vendor format
0199_20140328_160201_raw.all.mb56.gz 9.89MB Simrad multibeam vendor format
0200_20140328_170201_raw.all.mb56.gz 10.12MB Simrad multibeam vendor format
0201_20140328_180201_raw.all.mb56.gz 9.52MB Simrad multibeam vendor format
0202_20140328_190201_raw.all.mb56.gz 8.99MB Simrad multibeam vendor format
0203_20140328_200201_raw.all.mb56.gz 9.32MB Simrad multibeam vendor format
0204_20140328_210201_raw.all.mb56.gz 9.24MB Simrad multibeam vendor format
0205_20140328_220201_raw.all.mb56.gz 9.22MB Simrad multibeam vendor format
0206_20140328_230201_raw.all.mb56.gz 9.23MB Simrad multibeam vendor format
0207_20140329_000201_raw.all.mb56.gz 9.09MB Simrad multibeam vendor format
0208_20140329_010201_raw.all.mb56.gz 9.33MB Simrad multibeam vendor format
0209_20140329_020201_raw.all.mb56.gz 9.39MB Simrad multibeam vendor format
0210_20140329_030201_raw.all.mb56.gz 9.34MB Simrad multibeam vendor format
0211_20140329_040201_raw.all.mb56.gz 9.48MB Simrad multibeam vendor format
0212_20140329_050201_raw.all.mb56.gz 9.43MB Simrad multibeam vendor format
0213_20140329_060201_raw.all.mb56.gz 9.47MB Simrad multibeam vendor format
0214_20140329_070201_raw.all.mb56.gz 9.34MB Simrad multibeam vendor format
0215_20140329_080201_raw.all.mb56.gz 9.37MB Simrad multibeam vendor format
0216_20140329_090201_raw.all.mb56.gz 9.26MB Simrad multibeam vendor format
0217_20140329_100201_raw.all.mb56.gz 9.47MB Simrad multibeam vendor format
0218_20140329_110201_raw.all.mb56.gz 9.34MB Simrad multibeam vendor format
0219_20140329_120201_raw.all.mb56.gz 9.22MB Simrad multibeam vendor format
0220_20140329_130201_raw.all.mb56.gz 9.18MB Simrad multibeam vendor format
0221_20140329_140201_raw.all.mb56.gz 9.06MB Simrad multibeam vendor format
0222_20140329_150201_raw.all.mb56.gz 9.05MB Simrad multibeam vendor format
0223_20140329_160201_raw.all.mb56.gz 9.13MB Simrad multibeam vendor format
0224_20140329_170201_raw.all.mb56.gz 9.07MB Simrad multibeam vendor format
0225_20140329_180201_raw.all.mb56.gz 9.14MB Simrad multibeam vendor format
0226_20140329_190200_raw.all.mb56.gz 9.30MB Simrad multibeam vendor format
0227_20140329_200200_raw.all.mb56.gz 9.50MB Simrad multibeam vendor format
0228_20140329_210200_raw.all.mb56.gz 9.20MB Simrad multibeam vendor format
0229_20140329_220200_raw.all.mb56.gz 9.26MB Simrad multibeam vendor format
0230_20140329_230200_raw.all.mb56.gz 9.23MB Simrad multibeam vendor format
0231_20140330_000200_raw.all.mb56.gz 9.16MB Simrad multibeam vendor format
0232_20140330_010200_raw.all.mb56.gz 9.23MB Simrad multibeam vendor format
0233_20140330_020200_raw.all.mb56.gz 9.21MB Simrad multibeam vendor format
0234_20140330_030200_raw.all.mb56.gz 9.25MB Simrad multibeam vendor format
0235_20140330_040200_raw.all.mb56.gz 9.36MB Simrad multibeam vendor format
0236_20140330_050200_raw.all.mb56.gz 9.66MB Simrad multibeam vendor format
0237_20140330_060200_raw.all.mb56.gz 9.48MB Simrad multibeam vendor format
0238_20140330_070200_raw.all.mb56.gz 9.23MB Simrad multibeam vendor format
0239_20140330_080200_raw.all.mb56.gz 9.10MB Simrad multibeam vendor format
0240_20140330_090200_raw.all.mb56.gz 9.23MB Simrad multibeam vendor format
0241_20140330_100200_raw.all.mb56.gz 9.07MB Simrad multibeam vendor format
0242_20140330_110200_raw.all.mb56.gz 9.14MB Simrad multibeam vendor format
0243_20140330_120200_raw.all.mb56.gz 9.08MB Simrad multibeam vendor format
0244_20140330_130200_raw.all.mb56.gz 9.05MB Simrad multibeam vendor format
0245_20140330_140200_raw.all.mb56.gz 9.35MB Simrad multibeam vendor format
0246_20140330_150200_raw.all.mb56.gz 9.39MB Simrad multibeam vendor format
0247_20140330_160200_raw.all.mb56.gz 9.45MB Simrad multibeam vendor format
0248_20140330_170200_raw.all.mb56.gz 9.32MB Simrad multibeam vendor format
0249_20140330_180200_raw.all.mb56.gz 9.41MB Simrad multibeam vendor format
0250_20140330_190200_raw.all.mb56.gz 9.41MB Simrad multibeam vendor format
0251_20140330_200200_raw.all.mb56.gz 9.49MB Simrad multibeam vendor format
0252_20140330_210200_raw.all.mb56.gz 9.62MB Simrad multibeam vendor format
0253_20140330_220200_raw.all.mb56.gz 9.55MB Simrad multibeam vendor format
0254_20140330_230200_raw.all.mb56.gz 9.54MB Simrad multibeam vendor format
0255_20140331_000200_raw.all.mb56.gz 9.60MB Simrad multibeam vendor format
0256_20140331_010200_raw.all.mb56.gz 9.63MB Simrad multibeam vendor format
0257_20140331_020200_raw.all.mb56.gz 9.62MB Simrad multibeam vendor format
0258_20140331_030200_raw.all.mb56.gz 9.69MB Simrad multibeam vendor format
0259_20140331_040200_raw.all.mb56.gz 9.58MB Simrad multibeam vendor format
0260_20140331_050200_raw.all.mb56.gz 9.60MB Simrad multibeam vendor format
0261_20140331_060200_raw.all.mb56.gz 9.47MB Simrad multibeam vendor format
0262_20140331_070200_raw.all.mb56.gz 8.95MB Simrad multibeam vendor format
0263_20140331_080200_raw.all.mb56.gz 9.29MB Simrad multibeam vendor format
0264_20140331_090200_raw.all.mb56.gz 9.53MB Simrad multibeam vendor format
0265_20140331_100159_raw.all.mb56.gz 9.23MB Simrad multibeam vendor format
0266_20140331_110159_raw.all.mb56.gz 9.51MB Simrad multibeam vendor format
0267_20140331_120159_raw.all.mb56.gz 9.56MB Simrad multibeam vendor format
0268_20140331_130159_raw.all.mb56.gz 9.47MB Simrad multibeam vendor format
0269_20140331_140159_raw.all.mb56.gz 9.37MB Simrad multibeam vendor format
0270_20140331_150159_raw.all.mb56.gz 8.57MB Simrad multibeam vendor format
0271_20140331_160159_raw.all.mb56.gz 8.72MB Simrad multibeam vendor format
0272_20140331_170159_raw.all.mb56.gz 8.54MB Simrad multibeam vendor format
0273_20140331_180159_raw.all.mb56.gz 9.47MB Simrad multibeam vendor format
0274_20140331_190159_raw.all.mb56.gz 9.54MB Simrad multibeam vendor format
0275_20140331_200159_raw.all.mb56.gz 8.59MB Simrad multibeam vendor format
0276_20140331_210159_raw.all.mb56.gz 8.48MB Simrad multibeam vendor format
0277_20140331_220159_raw.all.mb56.gz 8.95MB Simrad multibeam vendor format
0278_20140331_230159_raw.all.mb56.gz 8.87MB Simrad multibeam vendor format
0279_20140401_000159_raw.all.mb56.gz 8.98MB Simrad multibeam vendor format
0280_20140401_010159_raw.all.mb56.gz 9.04MB Simrad multibeam vendor format
0281_20140401_020159_raw.all.mb56.gz 8.97MB Simrad multibeam vendor format
0282_20140401_030159_raw.all.mb56.gz 8.90MB Simrad multibeam vendor format
0283_20140401_040159_raw.all.mb56.gz 8.96MB Simrad multibeam vendor format
0284_20140401_050159_raw.all.mb56.gz 8.87MB Simrad multibeam vendor format
0285_20140401_060159_raw.all.mb56.gz 8.90MB Simrad multibeam vendor format
0286_20140401_070159_raw.all.mb56.gz 1.54MB Simrad multibeam vendor format
0287_20140401_071224_raw.all.mb56.gz 6.76MB Simrad multibeam vendor format
0288_20140401_075800_raw.all.mb56.gz 2.37MB Simrad multibeam vendor format
0289_20140401_081409_raw.all.mb56.gz 33.5KB Simrad multibeam vendor format
0290_20140401_081418_raw.all.mb56.gz 7.35MB Simrad multibeam vendor format
0291_20140401_091418_raw.all.mb56.gz 7.34MB Simrad multibeam vendor format
0292_20140401_101418_raw.all.mb56.gz 7.37MB Simrad multibeam vendor format
0293_20140401_111418_raw.all.mb56.gz 7.36MB Simrad multibeam vendor format
0294_20140401_121418_raw.all.mb56.gz 7.37MB Simrad multibeam vendor format
0295_20140401_131418_raw.all.mb56.gz 7.53MB Simrad multibeam vendor format
0296_20140401_141418_raw.all.mb56.gz 7.42MB Simrad multibeam vendor format
0297_20140401_151418_raw.all.mb56.gz 7.57MB Simrad multibeam vendor format
0298_20140401_161418_raw.all.mb56.gz 7.58MB Simrad multibeam vendor format
0299_20140401_171418_raw.all.mb56.gz 7.60MB Simrad multibeam vendor format
0300_20140401_181419_raw.all.mb56.gz 7.63MB Simrad multibeam vendor format
0301_20140401_191420_raw.all.mb56.gz 7.84MB Simrad multibeam vendor format
0302_20140401_201420_raw.all.mb56.gz 7.86MB Simrad multibeam vendor format
0303_20140401_211420_raw.all.mb56.gz 7.73MB Simrad multibeam vendor format
0304_20140401_221421_raw.all.mb56.gz 7.76MB Simrad multibeam vendor format
0305_20140401_231421_raw.all.mb56.gz 7.89MB Simrad multibeam vendor format
0306_20140402_001421_raw.all.mb56.gz 4.87MB Simrad multibeam vendor format
0307_20140402_005246_raw.all.mb56.gz 7.79MB Simrad multibeam vendor format
0308_20140402_015247_raw.all.mb56.gz 7.78MB Simrad multibeam vendor format
0309_20140402_025247_raw.all.mb56.gz 8.00MB Simrad multibeam vendor format
0310_20140402_035247_raw.all.mb56.gz 7.77MB Simrad multibeam vendor format
0311_20140402_045247_raw.all.mb56.gz 7.72MB Simrad multibeam vendor format
0312_20140402_055248_raw.all.mb56.gz 7.72MB Simrad multibeam vendor format
0313_20140402_065248_raw.all.mb56.gz 7.84MB Simrad multibeam vendor format
0314_20140402_075248_raw.all.mb56.gz 7.88MB Simrad multibeam vendor format
0315_20140402_085248_raw.all.mb56.gz 7.89MB Simrad multibeam vendor format
0316_20140402_095248_raw.all.mb56.gz 7.65MB Simrad multibeam vendor format
0317_20140402_105248_raw.all.mb56.gz 7.71MB Simrad multibeam vendor format
0318_20140402_115248_raw.all.mb56.gz 7.63MB Simrad multibeam vendor format
0319_20140402_125248_raw.all.mb56.gz 7.79MB Simrad multibeam vendor format
0320_20140402_135248_raw.all.mb56.gz 7.96MB Simrad multibeam vendor format
0321_20140402_145248_raw.all.mb56.gz 7.95MB Simrad multibeam vendor format
0322_20140402_155248_raw.all.mb56.gz 7.90MB Simrad multibeam vendor format
0323_20140402_165248_raw.all.mb56.gz 7.55MB Simrad multibeam vendor format
0324_20140402_175248_raw.all.mb56.gz 7.74MB Simrad multibeam vendor format
0325_20140402_185248_raw.all.mb56.gz 7.79MB Simrad multibeam vendor format
0326_20140402_195248_raw.all.mb56.gz 7.79MB Simrad multibeam vendor format
0327_20140402_205248_raw.all.mb56.gz 7.81MB Simrad multibeam vendor format
0328_20140402_215248_raw.all.mb56.gz 7.81MB Simrad multibeam vendor format
0329_20140402_225247_raw.all.mb56.gz 7.78MB Simrad multibeam vendor format
0330_20140402_235247_raw.all.mb56.gz 7.74MB Simrad multibeam vendor format
0331_20140403_005247_raw.all.mb56.gz 7.83MB Simrad multibeam vendor format
0332_20140403_015247_raw.all.mb56.gz 7.77MB Simrad multibeam vendor format
0333_20140403_025247_raw.all.mb56.gz 7.78MB Simrad multibeam vendor format
0334_20140403_035247_raw.all.mb56.gz 7.83MB Simrad multibeam vendor format
0335_20140403_045247_raw.all.mb56.gz 8.00MB Simrad multibeam vendor format
0336_20140403_055247_raw.all.mb56.gz 7.80MB Simrad multibeam vendor format
0337_20140403_065247_raw.all.mb56.gz 5.84MB Simrad multibeam vendor format
0337_20140403_073809_raw.all.mb56.gz 2.35MB Simrad multibeam vendor format
0338_20140403_075534_raw.all.mb56.gz 8.14MB Simrad multibeam vendor format
0339_20140403_085534_raw.all.mb56.gz 7.95MB Simrad multibeam vendor format
0340_20140403_095534_raw.all.mb56.gz 7.98MB Simrad multibeam vendor format
0341_20140403_105534_raw.all.mb56.gz 7.89MB Simrad multibeam vendor format
0342_20140403_115534_raw.all.mb56.gz 7.96MB Simrad multibeam vendor format
0343_20140403_125534_raw.all.mb56.gz 8.23MB Simrad multibeam vendor format
0344_20140403_135534_raw.all.mb56.gz 8.39MB Simrad multibeam vendor format
0345_20140403_145534_raw.all.mb56.gz 8.09MB Simrad multibeam vendor format
0346_20140403_155534_raw.all.mb56.gz 7.99MB Simrad multibeam vendor format
0347_20140403_165534_raw.all.mb56.gz 7.95MB Simrad multibeam vendor format
0348_20140403_175534_raw.all.mb56.gz 7.85MB Simrad multibeam vendor format
0349_20140403_185534_raw.all.mb56.gz 7.89MB Simrad multibeam vendor format
0350_20140403_195534_raw.all.mb56.gz 7.90MB Simrad multibeam vendor format
0351_20140403_205534_raw.all.mb56.gz 7.88MB Simrad multibeam vendor format
0352_20140403_215534_raw.all.mb56.gz 8.05MB Simrad multibeam vendor format
0353_20140403_225534_raw.all.mb56.gz 8.20MB Simrad multibeam vendor format
0354_20140403_235534_raw.all.mb56.gz 8.23MB Simrad multibeam vendor format
0355_20140404_005534_raw.all.mb56.gz 8.24MB Simrad multibeam vendor format
0356_20140404_015534_raw.all.mb56.gz 8.29MB Simrad multibeam vendor format
0357_20140404_025534_raw.all.mb56.gz 8.16MB Simrad multibeam vendor format
0358_20140404_035534_raw.all.mb56.gz 8.00MB Simrad multibeam vendor format
0359_20140404_045534_raw.all.mb56.gz 8.18MB Simrad multibeam vendor format
0360_20140404_055534_raw.all.mb56.gz 8.03MB Simrad multibeam vendor format
0361_20140404_065534_raw.all.mb56.gz 1.13MB Simrad multibeam vendor format
0362_20140404_070334_raw.all.mb56.gz 8.05MB Simrad multibeam vendor format
0363_20140404_080334_raw.all.mb56.gz 8.07MB Simrad multibeam vendor format
0364_20140404_090334_raw.all.mb56.gz 7.98MB Simrad multibeam vendor format
0365_20140404_100334_raw.all.mb56.gz 7.87MB Simrad multibeam vendor format
0366_20140404_110334_raw.all.mb56.gz 7.84MB Simrad multibeam vendor format
0367_20140404_120334_raw.all.mb56.gz 7.77MB Simrad multibeam vendor format
0368_20140404_130334_raw.all.mb56.gz 7.84MB Simrad multibeam vendor format
0369_20140404_140334_raw.all.mb56.gz 7.88MB Simrad multibeam vendor format
0370_20140404_150334_raw.all.mb56.gz 7.93MB Simrad multibeam vendor format
0371_20140404_160334_raw.all.mb56.gz 8.02MB Simrad multibeam vendor format
0372_20140404_170334_raw.all.mb56.gz 7.97MB Simrad multibeam vendor format
0373_20140404_180334_raw.all.mb56.gz 7.70MB Simrad multibeam vendor format
0374_20140404_190334_raw.all.mb56.gz 7.80MB Simrad multibeam vendor format
0375_20140404_200334_raw.all.mb56.gz 7.87MB Simrad multibeam vendor format
0376_20140404_210334_raw.all.mb56.gz 7.79MB Simrad multibeam vendor format
0377_20140404_220334_raw.all.mb56.gz 7.84MB Simrad multibeam vendor format
0378_20140404_230333_raw.all.mb56.gz 7.69MB Simrad multibeam vendor format
0379_20140405_000333_raw.all.mb56.gz 7.66MB Simrad multibeam vendor format
0380_20140405_010333_raw.all.mb56.gz 7.72MB Simrad multibeam vendor format
0381_20140405_020333_raw.all.mb56.gz 7.74MB Simrad multibeam vendor format
0382_20140405_030333_raw.all.mb56.gz 7.72MB Simrad multibeam vendor format
0383_20140405_040333_raw.all.mb56.gz 7.73MB Simrad multibeam vendor format
0384_20140405_050333_raw.all.mb56.gz 7.69MB Simrad multibeam vendor format
0385_20140405_060333_raw.all.mb56.gz 7.64MB Simrad multibeam vendor format
0386_20140405_070333_raw.all.mb56.gz 7.84MB Simrad multibeam vendor format
0387_20140405_080333_raw.all.mb56.gz 7.78MB Simrad multibeam vendor format
0388_20140405_090333_raw.all.mb56.gz 7.78MB Simrad multibeam vendor format
0389_20140405_100333_raw.all.mb56.gz 7.81MB Simrad multibeam vendor format
0390_20140405_110333_raw.all.mb56.gz 7.78MB Simrad multibeam vendor format
0391_20140405_120333_raw.all.mb56.gz 7.76MB Simrad multibeam vendor format
0392_20140405_130333_raw.all.mb56.gz 7.81MB Simrad multibeam vendor format
0393_20140405_140333_raw.all.mb56.gz 7.80MB Simrad multibeam vendor format
0394_20140405_150333_raw.all.mb56.gz 7.92MB Simrad multibeam vendor format
0395_20140405_160333_raw.all.mb56.gz 7.82MB Simrad multibeam vendor format
0396_20140405_170333_raw.all.mb56.gz 7.81MB Simrad multibeam vendor format
0397_20140405_180333_raw.all.mb56.gz 7.78MB Simrad multibeam vendor format
0398_20140405_190333_raw.all.mb56.gz 7.78MB Simrad multibeam vendor format
0399_20140405_200333_raw.all.mb56.gz 7.88MB Simrad multibeam vendor format
0400_20140405_210333_raw.all.mb56.gz 7.88MB Simrad multibeam vendor format
0401_20140405_220333_raw.all.mb56.gz 7.75MB Simrad multibeam vendor format
0402_20140405_230333_raw.all.mb56.gz 8.87MB Simrad multibeam vendor format
0403_20140406_000333_raw.all.mb56.gz 8.86MB Simrad multibeam vendor format
0404_20140406_010333_raw.all.mb56.gz 8.90MB Simrad multibeam vendor format
0405_20140406_020333_raw.all.mb56.gz 8.91MB Simrad multibeam vendor format
0406_20140406_030333_raw.all.mb56.gz 8.74MB Simrad multibeam vendor format
0407_20140406_040333_raw.all.mb56.gz 8.66MB Simrad multibeam vendor format
0408_20140406_050333_raw.all.mb56.gz 8.55MB Simrad multibeam vendor format
0409_20140406_060333_raw.all.mb56.gz 8.54MB Simrad multibeam vendor format
0410_20140406_070333_raw.all.mb56.gz 8.78MB Simrad multibeam vendor format
0411_20140406_080333_raw.all.mb56.gz 9.07MB Simrad multibeam vendor format
0412_20140406_090333_raw.all.mb56.gz 9.40MB Simrad multibeam vendor format
0413_20140406_100333_raw.all.mb56.gz 9.11MB Simrad multibeam vendor format
0414_20140406_110333_raw.all.mb56.gz 8.98MB Simrad multibeam vendor format
0415_20140406_120333_raw.all.mb56.gz 8.86MB Simrad multibeam vendor format
0416_20140406_130333_raw.all.mb56.gz 8.88MB Simrad multibeam vendor format
0417_20140406_140333_raw.all.mb56.gz 8.85MB Simrad multibeam vendor format
0418_20140406_150333_raw.all.mb56.gz 8.78MB Simrad multibeam vendor format
0419_20140406_160333_raw.all.mb56.gz 9.04MB Simrad multibeam vendor format
0420_20140406_170333_raw.all.mb56.gz 9.23MB Simrad multibeam vendor format
0421_20140406_180333_raw.all.mb56.gz 9.39MB Simrad multibeam vendor format
0422_20140406_190333_raw.all.mb56.gz 9.36MB Simrad multibeam vendor format
0423_20140406_200333_raw.all.mb56.gz 9.20MB Simrad multibeam vendor format
0424_20140406_210333_raw.all.mb56.gz 9.01MB Simrad multibeam vendor format
0425_20140406_220333_raw.all.mb56.gz 9.06MB Simrad multibeam vendor format
0426_20140406_230333_raw.all.mb56.gz 9.10MB Simrad multibeam vendor format
0427_20140407_000333_raw.all.mb56.gz 9.15MB Simrad multibeam vendor format
0428_20140407_010333_raw.all.mb56.gz 9.09MB Simrad multibeam vendor format
0429_20140407_020333_raw.all.mb56.gz 8.94MB Simrad multibeam vendor format
0430_20140407_030333_raw.all.mb56.gz 9.05MB Simrad multibeam vendor format
0431_20140407_040333_raw.all.mb56.gz 9.19MB Simrad multibeam vendor format
0432_20140407_050333_raw.all.mb56.gz 9.12MB Simrad multibeam vendor format
0433_20140407_060333_raw.all.mb56.gz 9.12MB Simrad multibeam vendor format
0434_20140407_070333_raw.all.mb56.gz 9.08MB Simrad multibeam vendor format
0435_20140407_080333_raw.all.mb56.gz 9.03MB Simrad multibeam vendor format
0436_20140407_090332_raw.all.mb56.gz 8.91MB Simrad multibeam vendor format
0437_20140407_100332_raw.all.mb56.gz 8.84MB Simrad multibeam vendor format
0438_20140407_110332_raw.all.mb56.gz 8.99MB Simrad multibeam vendor format
0439_20140407_120332_raw.all.mb56.gz 9.12MB Simrad multibeam vendor format
0440_20140407_130332_raw.all.mb56.gz 9.01MB Simrad multibeam vendor format
0441_20140407_140332_raw.all.mb56.gz 8.92MB Simrad multibeam vendor format
0442_20140407_150332_raw.all.mb56.gz 9.08MB Simrad multibeam vendor format
0443_20140407_160332_raw.all.mb56.gz 9.05MB Simrad multibeam vendor format
0444_20140407_170332_raw.all.mb56.gz 9.11MB Simrad multibeam vendor format
0445_20140407_180332_raw.all.mb56.gz 9.09MB Simrad multibeam vendor format
0446_20140407_190332_raw.all.mb56.gz 8.51MB Simrad multibeam vendor format
0447_20140407_200332_raw.all.mb56.gz 8.42MB Simrad multibeam vendor format
0448_20140407_210332_raw.all.mb56.gz 8.47MB Simrad multibeam vendor format
0449_20140407_220332_raw.all.mb56.gz 8.44MB Simrad multibeam vendor format
0450_20140407_230332_raw.all.mb56.gz 8.47MB Simrad multibeam vendor format
0451_20140408_000332_raw.all.mb56.gz 8.53MB Simrad multibeam vendor format
0452_20140408_010332_raw.all.mb56.gz 8.56MB Simrad multibeam vendor format
0453_20140408_020332_raw.all.mb56.gz 8.52MB Simrad multibeam vendor format
0454_20140408_030332_raw.all.mb56.gz 8.59MB Simrad multibeam vendor format
0455_20140408_040332_raw.all.mb56.gz 8.72MB Simrad multibeam vendor format
0456_20140408_050332_raw.all.mb56.gz 8.69MB Simrad multibeam vendor format
0457_20140408_060332_raw.all.mb56.gz 3.32MB Simrad multibeam vendor format
0457_20140408_062744_raw.all.mb56.gz 216.5KB Simrad multibeam vendor format
0458_20140408_062910_raw.all.mb56.gz 9.05MB Simrad multibeam vendor format
0459_20140408_072909_raw.all.mb56.gz 9.48MB Simrad multibeam vendor format
0460_20140408_082909_raw.all.mb56.gz 9.73MB Simrad multibeam vendor format
0461_20140408_092909_raw.all.mb56.gz 9.26MB Simrad multibeam vendor format
0462_20140408_102909_raw.all.mb56.gz 8.93MB Simrad multibeam vendor format
0463_20140408_112909_raw.all.mb56.gz 8.83MB Simrad multibeam vendor format
0464_20140408_122909_raw.all.mb56.gz 8.77MB Simrad multibeam vendor format
0465_20140408_132910_raw.all.mb56.gz 8.82MB Simrad multibeam vendor format
0466_20140408_142909_raw.all.mb56.gz 8.74MB Simrad multibeam vendor format
0467_20140408_152909_raw.all.mb56.gz 8.64MB Simrad multibeam vendor format
0468_20140408_162909_raw.all.mb56.gz 8.70MB Simrad multibeam vendor format
0469_20140408_172910_raw.all.mb56.gz 8.75MB Simrad multibeam vendor format
0470_20140408_182910_raw.all.mb56.gz 8.79MB Simrad multibeam vendor format
0471_20140408_192910_raw.all.mb56.gz 8.72MB Simrad multibeam vendor format
0472_20140408_202911_raw.all.mb56.gz 8.74MB Simrad multibeam vendor format
0473_20140408_212911_raw.all.mb56.gz 8.77MB Simrad multibeam vendor format
0474_20140408_222911_raw.all.mb56.gz 8.70MB Simrad multibeam vendor format
0475_20140408_232911_raw.all.mb56.gz 8.75MB Simrad multibeam vendor format
0476_20140409_002912_raw.all.mb56.gz 8.77MB Simrad multibeam vendor format
0477_20140409_012912_raw.all.mb56.gz 8.95MB Simrad multibeam vendor format
0478_20140409_022912_raw.all.mb56.gz 8.80MB Simrad multibeam vendor format
0479_20140409_032913_raw.all.mb56.gz 2.54MB Simrad multibeam vendor format
0480_20140409_034633_raw.all.mb56.gz 9.11MB Simrad multibeam vendor format
0481_20140409_044633_raw.all.mb56.gz 8.93MB Simrad multibeam vendor format
0482_20140409_054633_raw.all.mb56.gz 8.79MB Simrad multibeam vendor format
0483_20140409_064633_raw.all.mb56.gz 3.14MB Simrad multibeam vendor format
0484_20140409_070732_raw.all.mb56.gz 8.68MB Simrad multibeam vendor format
0485_20140409_080732_raw.all.mb56.gz 8.69MB Simrad multibeam vendor format
0486_20140409_090732_raw.all.mb56.gz 8.77MB Simrad multibeam vendor format
0487_20140409_100732_raw.all.mb56.gz 8.67MB Simrad multibeam vendor format
0488_20140409_110732_raw.all.mb56.gz 8.69MB Simrad multibeam vendor format
0489_20140409_120732_raw.all.mb56.gz 8.69MB Simrad multibeam vendor format
0490_20140409_130732_raw.all.mb56.gz 8.81MB Simrad multibeam vendor format
0491_20140409_140732_raw.all.mb56.gz 8.73MB Simrad multibeam vendor format
0492_20140409_150731_raw.all.mb56.gz 8.69MB Simrad multibeam vendor format
0493_20140409_160731_raw.all.mb56.gz 8.67MB Simrad multibeam vendor format
0494_20140409_170731_raw.all.mb56.gz 8.72MB Simrad multibeam vendor format
0495_20140409_180731_raw.all.mb56.gz 8.75MB Simrad multibeam vendor format
0496_20140409_190731_raw.all.mb56.gz 8.71MB Simrad multibeam vendor format
0497_20140409_200731_raw.all.mb56.gz 8.72MB Simrad multibeam vendor format
0498_20140409_210731_raw.all.mb56.gz 8.62MB Simrad multibeam vendor format
0499_20140409_220731_raw.all.mb56.gz 1.81MB Simrad multibeam vendor format
0500_20140409_222008_raw.all.mb56.gz 8.63MB Simrad multibeam vendor format
0501_20140409_232008_raw.all.mb56.gz 8.62MB Simrad multibeam vendor format
0502_20140410_002008_raw.all.mb56.gz 8.71MB Simrad multibeam vendor format
0503_20140410_012008_raw.all.mb56.gz 8.60MB Simrad multibeam vendor format
0504_20140410_022008_raw.all.mb56.gz 8.89MB Simrad multibeam vendor format
0505_20140410_032008_raw.all.mb56.gz 8.69MB Simrad multibeam vendor format
0506_20140410_042008_raw.all.mb56.gz 8.79MB Simrad multibeam vendor format
0507_20140410_052008_raw.all.mb56.gz 8.74MB Simrad multibeam vendor format
0508_20140410_062008_raw.all.mb56.gz 8.89MB Simrad multibeam vendor format
0509_20140410_072008_raw.all.mb56.gz 8.53MB Simrad multibeam vendor format
0510_20140410_082008_raw.all.mb56.gz 2.90MB Simrad multibeam vendor format
0511_20140410_084030_raw.all.mb56.gz 8.20MB Simrad multibeam vendor format
0512_20140410_094030_raw.all.mb56.gz 8.16MB Simrad multibeam vendor format
0513_20140410_104030_raw.all.mb56.gz 8.26MB Simrad multibeam vendor format
0514_20140410_114030_raw.all.mb56.gz 8.42MB Simrad multibeam vendor format
0515_20140410_124030_raw.all.mb56.gz 8.53MB Simrad multibeam vendor format
0516_20140410_134030_raw.all.mb56.gz 8.45MB Simrad multibeam vendor format
0517_20140410_144030_raw.all.mb56.gz 8.39MB Simrad multibeam vendor format
0518_20140410_154030_raw.all.mb56.gz 8.18MB Simrad multibeam vendor format
0519_20140410_164030_raw.all.mb56.gz 8.33MB Simrad multibeam vendor format
0520_20140410_174031_raw.all.mb56.gz 8.13MB Simrad multibeam vendor format
0521_20140410_184030_raw.all.mb56.gz 4.19MB Simrad multibeam vendor format
0522_20140410_191053_raw.all.mb56.gz 8.11MB Simrad multibeam vendor format
0523_20140410_201053_raw.all.mb56.gz 8.13MB Simrad multibeam vendor format
0524_20140410_211053_raw.all.mb56.gz 8.01MB Simrad multibeam vendor format
0525_20140410_221053_raw.all.mb56.gz 8.09MB Simrad multibeam vendor format
0526_20140410_231053_raw.all.mb56.gz 8.13MB Simrad multibeam vendor format
0527_20140411_001053_raw.all.mb56.gz 8.13MB Simrad multibeam vendor format
0528_20140411_011053_raw.all.mb56.gz 8.08MB Simrad multibeam vendor format
0529_20140411_021053_raw.all.mb56.gz 7.99MB Simrad multibeam vendor format
0530_20140411_031053_raw.all.mb56.gz 7.89MB Simrad multibeam vendor format
0531_20140411_041053_raw.all.mb56.gz 4.18MB Simrad multibeam vendor format
0532_20140411_044304_raw.all.mb56.gz 0.50MB Simrad multibeam vendor format
0533_20140411_044918_raw.all.mb56.gz 0.66MB Simrad multibeam vendor format
0534_20140411_051939_raw.all.mb56.gz 4.3KB Simrad multibeam vendor format
0535_20140411_055655_raw.all.mb56.gz 7.55MB Simrad multibeam vendor format
0536_20140411_065655_raw.all.mb56.gz 7.85MB Simrad multibeam vendor format
0537_20140411_075655_raw.all.mb56.gz 7.72MB Simrad multibeam vendor format
0538_20140411_085655_raw.all.mb56.gz 7.92MB Simrad multibeam vendor format
0539_20140411_095655_raw.all.mb56.gz 364.5KB Simrad multibeam vendor format
0540_20140411_095923_raw.all.mb56.gz 8.00MB Simrad multibeam vendor format
0541_20140411_105912_raw.all.mb56.gz 7.98MB Simrad multibeam vendor format
0542_20140411_115912_raw.all.mb56.gz 8.00MB Simrad multibeam vendor format
0543_20140411_125912_raw.all.mb56.gz 8.01MB Simrad multibeam vendor format
0544_20140411_135912_raw.all.mb56.gz 8.06MB Simrad multibeam vendor format
0545_20140411_145912_raw.all.mb56.gz 8.01MB Simrad multibeam vendor format
0546_20140411_155912_raw.all.mb56.gz 8.03MB Simrad multibeam vendor format
0547_20140411_165912_raw.all.mb56.gz 7.92MB Simrad multibeam vendor format
0548_20140411_175912_raw.all.mb56.gz 7.98MB Simrad multibeam vendor format
0549_20140411_185912_raw.all.mb56.gz 4.73MB Simrad multibeam vendor format
0550_20140411_193449_raw.all.mb56.gz 149.6KB Simrad multibeam vendor format
0551_20140411_193556_raw.all.mb56.gz 8.14MB Simrad multibeam vendor format
0552_20140411_203545_raw.all.mb56.gz 8.20MB Simrad multibeam vendor format
0553_20140411_213544_raw.all.mb56.gz 8.19MB Simrad multibeam vendor format
0554_20140411_223544_raw.all.mb56.gz 8.32MB Simrad multibeam vendor format
0555_20140411_233544_raw.all.mb56.gz 7.44MB Simrad multibeam vendor format
0556_20140412_003036_raw.all.mb56.gz 8.09MB Simrad multibeam vendor format
0557_20140412_013036_raw.all.mb56.gz 8.05MB Simrad multibeam vendor format
0558_20140412_023036_raw.all.mb56.gz 8.24MB Simrad multibeam vendor format
0559_20140412_033036_raw.all.mb56.gz 8.07MB Simrad multibeam vendor format
0560_20140412_043036_raw.all.mb56.gz 7.99MB Simrad multibeam vendor format
0561_20140412_053036_raw.all.mb56.gz 8.06MB Simrad multibeam vendor format
0562_20140412_063036_raw.all.mb56.gz 8.13MB Simrad multibeam vendor format
0563_20140412_073036_raw.all.mb56.gz 8.07MB Simrad multibeam vendor format
0564_20140412_083036_raw.all.mb56.gz 8.15MB Simrad multibeam vendor format
0565_20140412_093035_raw.all.mb56.gz 4.39MB Simrad multibeam vendor format
0566_20140412_100255_raw.all.mb56.gz 7.91MB Simrad multibeam vendor format
0567_20140412_110255_raw.all.mb56.gz 7.77MB Simrad multibeam vendor format
0568_20140412_120255_raw.all.mb56.gz 7.71MB Simrad multibeam vendor format
0569_20140412_130255_raw.all.mb56.gz 13.89MB Simrad multibeam vendor format
0569_20140412_145104_raw.all.mb56.gz 7.88MB Simrad multibeam vendor format
0570_20140412_155104_raw.all.mb56.gz 7.91MB Simrad multibeam vendor format
0571_20140412_165104_raw.all.mb56.gz 7.90MB Simrad multibeam vendor format
0572_20140412_175104_raw.all.mb56.gz 7.70MB Simrad multibeam vendor format
0573_20140412_185104_raw.all.mb56.gz 7.56MB Simrad multibeam vendor format
0574_20140412_195104_raw.all.mb56.gz 7.49MB Simrad multibeam vendor format
0575_20140412_205105_raw.all.mb56.gz 7.48MB Simrad multibeam vendor format
0576_20140412_215104_raw.all.mb56.gz 7.49MB Simrad multibeam vendor format
0577_20140412_225104_raw.all.mb56.gz 7.40MB Simrad multibeam vendor format
0578_20140412_235104_raw.all.mb56.gz 7.36MB Simrad multibeam vendor format
0579_20140413_005104_raw.all.mb56.gz 7.78MB Simrad multibeam vendor format
0580_20140413_015104_raw.all.mb56.gz 7.97MB Simrad multibeam vendor format
0581_20140413_025104_raw.all.mb56.gz 7.94MB Simrad multibeam vendor format
0582_20140413_035104_raw.all.mb56.gz 7.88MB Simrad multibeam vendor format
0583_20140413_045104_raw.all.mb56.gz 7.71MB Simrad multibeam vendor format
0584_20140413_055104_raw.all.mb56.gz 7.62MB Simrad multibeam vendor format
0585_20140413_065104_raw.all.mb56.gz 7.60MB Simrad multibeam vendor format
0586_20140413_075104_raw.all.mb56.gz 7.66MB Simrad multibeam vendor format
0587_20140413_085104_raw.all.mb56.gz 7.83MB Simrad multibeam vendor format
0588_20140413_095104_raw.all.mb56.gz 7.86MB Simrad multibeam vendor format
0589_20140413_105104_raw.all.mb56.gz 7.92MB Simrad multibeam vendor format
0590_20140413_115104_raw.all.mb56.gz 7.85MB Simrad multibeam vendor format
0591_20140413_125104_raw.all.mb56.gz 7.67MB Simrad multibeam vendor format
0592_20140413_135104_raw.all.mb56.gz 7.70MB Simrad multibeam vendor format
0593_20140413_145104_raw.all.mb56.gz 7.74MB Simrad multibeam vendor format
0594_20140413_155104_raw.all.mb56.gz 7.77MB Simrad multibeam vendor format
0595_20140413_165104_raw.all.mb56.gz 7.72MB Simrad multibeam vendor format
0596_20140413_175104_raw.all.mb56.gz 7.71MB Simrad multibeam vendor format
0597_20140413_185104_raw.all.mb56.gz 7.67MB Simrad multibeam vendor format
0598_20140413_195104_raw.all.mb56.gz 7.44MB Simrad multibeam vendor format
0599_20140413_205104_raw.all.mb56.gz 7.43MB Simrad multibeam vendor format
0600_20140413_215104_raw.all.mb56.gz 7.49MB Simrad multibeam vendor format
0601_20140413_225104_raw.all.mb56.gz 7.51MB Simrad multibeam vendor format
0602_20140413_235104_raw.all.mb56.gz 7.75MB Simrad multibeam vendor format
0603_20140414_005104_raw.all.mb56.gz 7.76MB Simrad multibeam vendor format
0604_20140414_015104_raw.all.mb56.gz 7.81MB Simrad multibeam vendor format
0605_20140414_025104_raw.all.mb56.gz 7.84MB Simrad multibeam vendor format
0606_20140414_035104_raw.all.mb56.gz 7.79MB Simrad multibeam vendor format
0607_20140414_045103_raw.all.mb56.gz 7.86MB Simrad multibeam vendor format
0608_20140414_055103_raw.all.mb56.gz 7.80MB Simrad multibeam vendor format
0609_20140414_065103_raw.all.mb56.gz 7.74MB Simrad multibeam vendor format
0610_20140414_075103_raw.all.mb56.gz 7.71MB Simrad multibeam vendor format
0611_20140414_085103_raw.all.mb56.gz 7.77MB Simrad multibeam vendor format
0612_20140414_095103_raw.all.mb56.gz 7.87MB Simrad multibeam vendor format
0613_20140414_105103_raw.all.mb56.gz 7.93MB Simrad multibeam vendor format
0614_20140414_115103_raw.all.mb56.gz 7.92MB Simrad multibeam vendor format
0615_20140414_125103_raw.all.mb56.gz 7.80MB Simrad multibeam vendor format
0616_20140414_135103_raw.all.mb56.gz 7.71MB Simrad multibeam vendor format
0617_20140414_145103_raw.all.mb56.gz 7.66MB Simrad multibeam vendor format
0618_20140414_155103_raw.all.mb56.gz 7.62MB Simrad multibeam vendor format
0619_20140414_165103_raw.all.mb56.gz 7.68MB Simrad multibeam vendor format
0620_20140414_175103_raw.all.mb56.gz 1.06MB Simrad multibeam vendor format
0621_20140414_175917_raw.all.mb56.gz 7.68MB Simrad multibeam vendor format
0622_20140414_185917_raw.all.mb56.gz 7.68MB Simrad multibeam vendor format
0623_20140414_195917_raw.all.mb56.gz 7.66MB Simrad multibeam vendor format
0624_20140414_205917_raw.all.mb56.gz 7.70MB Simrad multibeam vendor format
0625_20140414_215917_raw.all.mb56.gz 7.68MB Simrad multibeam vendor format
0626_20140414_225917_raw.all.mb56.gz 7.68MB Simrad multibeam vendor format
0627_20140414_235917_raw.all.mb56.gz 7.77MB Simrad multibeam vendor format
0628_20140415_005917_raw.all.mb56.gz 7.71MB Simrad multibeam vendor format
0629_20140415_015917_raw.all.mb56.gz 7.65MB Simrad multibeam vendor format
0630_20140415_025917_raw.all.mb56.gz 7.70MB Simrad multibeam vendor format
0631_20140415_035917_raw.all.mb56.gz 7.75MB Simrad multibeam vendor format
0632_20140415_045917_raw.all.mb56.gz 7.70MB Simrad multibeam vendor format
0633_20140415_055917_raw.all.mb56.gz 7.65MB Simrad multibeam vendor format
0634_20140415_065917_raw.all.mb56.gz 2.58MB Simrad multibeam vendor format
0635_20140415_071909_raw.all.mb56.gz 9.13MB Simrad multibeam vendor format
0636_20140415_081909_raw.all.mb56.gz 9.09MB Simrad multibeam vendor format
0637_20140415_091909_raw.all.mb56.gz 9.02MB Simrad multibeam vendor format
0638_20140415_101909_raw.all.mb56.gz 9.06MB Simrad multibeam vendor format
0639_20140415_111909_raw.all.mb56.gz 8.79MB Simrad multibeam vendor format
0640_20140415_121909_raw.all.mb56.gz 8.58MB Simrad multibeam vendor format
0641_20140415_131909_raw.all.mb56.gz 8.54MB Simrad multibeam vendor format
0642_20140415_141909_raw.all.mb56.gz 8.62MB Simrad multibeam vendor format
0643_20140415_151909_raw.all.mb56.gz 8.44MB Simrad multibeam vendor format
0644_20140415_161909_raw.all.mb56.gz 8.40MB Simrad multibeam vendor format
0645_20140415_171909_raw.all.mb56.gz 8.35MB Simrad multibeam vendor format
0646_20140415_181909_raw.all.mb56.gz 8.58MB Simrad multibeam vendor format
0647_20140415_191909_raw.all.mb56.gz 8.65MB Simrad multibeam vendor format
0648_20140415_201909_raw.all.mb56.gz 8.94MB Simrad multibeam vendor format
0649_20140415_211909_raw.all.mb56.gz 8.37MB Simrad multibeam vendor format
0650_20140415_221909_raw.all.mb56.gz 8.45MB Simrad multibeam vendor format
0651_20140415_231909_raw.all.mb56.gz 8.40MB Simrad multibeam vendor format
0652_20140416_001909_raw.all.mb56.gz 8.44MB Simrad multibeam vendor format
0653_20140416_011909_raw.all.mb56.gz 8.65MB Simrad multibeam vendor format
0654_20140416_021908_raw.all.mb56.gz 8.58MB Simrad multibeam vendor format
0655_20140416_031908_raw.all.mb56.gz 8.30MB Simrad multibeam vendor format
0656_20140416_041908_raw.all.mb56.gz 8.26MB Simrad multibeam vendor format
0657_20140416_051908_raw.all.mb56.gz 8.41MB Simrad multibeam vendor format
0658_20140416_061908_raw.all.mb56.gz 9.10MB Simrad multibeam vendor format
0659_20140416_071908_raw.all.mb56.gz 3.14MB Simrad multibeam vendor format
0660_20140416_073948_raw.all.mb56.gz 7.22MB Simrad multibeam vendor format
0661_20140416_083948_raw.all.mb56.gz 7.21MB Simrad multibeam vendor format
0662_20140416_093948_raw.all.mb56.gz 7.46MB Simrad multibeam vendor format
0663_20140416_103948_raw.all.mb56.gz 7.56MB Simrad multibeam vendor format
0664_20140416_113948_raw.all.mb56.gz 7.53MB Simrad multibeam vendor format
0665_20140416_123948_raw.all.mb56.gz 7.44MB Simrad multibeam vendor format
0666_20140416_133948_raw.all.mb56.gz 7.52MB Simrad multibeam vendor format
0667_20140416_143948_raw.all.mb56.gz 7.36MB Simrad multibeam vendor format
0668_20140416_153948_raw.all.mb56.gz 7.28MB Simrad multibeam vendor format
0669_20140416_163948_raw.all.mb56.gz 7.17MB Simrad multibeam vendor format
0670_20140416_173948_raw.all.mb56.gz 7.30MB Simrad multibeam vendor format
0671_20140416_183948_raw.all.mb56.gz 7.41MB Simrad multibeam vendor format
0672_20140416_193948_raw.all.mb56.gz 7.35MB Simrad multibeam vendor format
0673_20140416_203948_raw.all.mb56.gz 7.47MB Simrad multibeam vendor format
0674_20140416_213948_raw.all.mb56.gz 1.33MB Simrad multibeam vendor format
0675_20140416_215028_raw.all.mb56.gz 7.43MB Simrad multibeam vendor format
0676_20140416_225029_raw.all.mb56.gz 7.34MB Simrad multibeam vendor format
0677_20140416_235028_raw.all.mb56.gz 7.31MB Simrad multibeam vendor format
0678_20140417_005028_raw.all.mb56.gz 10.34MB Simrad multibeam vendor format
0678_20140417_021543_raw.all.mb56.gz 7.51MB Simrad multibeam vendor format
0679_20140417_031543_raw.all.mb56.gz 7.40MB Simrad multibeam vendor format
0680_20140417_041543_raw.all.mb56.gz 7.39MB Simrad multibeam vendor format
0681_20140417_051543_raw.all.mb56.gz 7.39MB Simrad multibeam vendor format
0682_20140417_061543_raw.all.mb56.gz 7.42MB Simrad multibeam vendor format
0683_20140417_071543_raw.all.mb56.gz 7.28MB Simrad multibeam vendor format
0684_20140417_081543_raw.all.mb56.gz 7.33MB Simrad multibeam vendor format
0685_20140417_091543_raw.all.mb56.gz 7.10MB Simrad multibeam vendor format
0686_20140417_101543_raw.all.mb56.gz 7.01MB Simrad multibeam vendor format
0687_20140417_111543_raw.all.mb56.gz 7.01MB Simrad multibeam vendor format
0688_20140417_121543_raw.all.mb56.gz 7.06MB Simrad multibeam vendor format
0689_20140417_131543_raw.all.mb56.gz 7.25MB Simrad multibeam vendor format
0690_20140417_141543_raw.all.mb56.gz 7.34MB Simrad multibeam vendor format
0691_20140417_151543_raw.all.mb56.gz 7.30MB Simrad multibeam vendor format
0692_20140417_161543_raw.all.mb56.gz 7.36MB Simrad multibeam vendor format
0693_20140417_171543_raw.all.mb56.gz 7.35MB Simrad multibeam vendor format
0694_20140417_181543_raw.all.mb56.gz 7.31MB Simrad multibeam vendor format
0695_20140417_191543_raw.all.mb56.gz 7.09MB Simrad multibeam vendor format
0696_20140417_201543_raw.all.mb56.gz 7.13MB Simrad multibeam vendor format
0697_20140417_211543_raw.all.mb56.gz 7.09MB Simrad multibeam vendor format
0698_20140417_221543_raw.all.mb56.gz 7.12MB Simrad multibeam vendor format
0699_20140417_231543_raw.all.mb56.gz 7.28MB Simrad multibeam vendor format
0700_20140418_001543_raw.all.mb56.gz 7.28MB Simrad multibeam vendor format
0701_20140418_011543_raw.all.mb56.gz 7.28MB Simrad multibeam vendor format
0702_20140418_021543_raw.all.mb56.gz 7.25MB Simrad multibeam vendor format
0703_20140418_031543_raw.all.mb56.gz 7.29MB Simrad multibeam vendor format
0704_20140418_041543_raw.all.mb56.gz 7.44MB Simrad multibeam vendor format
0705_20140418_051547_raw.all.mb56.gz 7.39MB Simrad multibeam vendor format
0706_20140418_061547_raw.all.mb56.gz 7.20MB Simrad multibeam vendor format
0707_20140418_071547_raw.all.mb56.gz 7.22MB Simrad multibeam vendor format
0708_20140418_081548_raw.all.mb56.gz 7.23MB Simrad multibeam vendor format
0709_20140418_091548_raw.all.mb56.gz 7.31MB Simrad multibeam vendor format
0710_20140418_101548_raw.all.mb56.gz 7.19MB Simrad multibeam vendor format
0711_20140418_111548_raw.all.mb56.gz 7.16MB Simrad multibeam vendor format
0712_20140418_121548_raw.all.mb56.gz 7.23MB Simrad multibeam vendor format
0713_20140418_131549_raw.all.mb56.gz 7.18MB Simrad multibeam vendor format
0714_20140418_141549_raw.all.mb56.gz 7.26MB Simrad multibeam vendor format
0715_20140418_151549_raw.all.mb56.gz 7.30MB Simrad multibeam vendor format
0716_20140418_161549_raw.all.mb56.gz 7.26MB Simrad multibeam vendor format
0717_20140418_171549_raw.all.mb56.gz 7.23MB Simrad multibeam vendor format
0718_20140418_181550_raw.all.mb56.gz 7.11MB Simrad multibeam vendor format
0719_20140418_191550_raw.all.mb56.gz 7.07MB Simrad multibeam vendor format
0720_20140418_201550_raw.all.mb56.gz 7.09MB Simrad multibeam vendor format
0721_20140418_211550_raw.all.mb56.gz 7.08MB Simrad multibeam vendor format
0722_20140418_221550_raw.all.mb56.gz 2.38MB Simrad multibeam vendor format
0723_20140418_223557_raw.all.mb56.gz 7.13MB Simrad multibeam vendor format
0724_20140418_233557_raw.all.mb56.gz 7.13MB Simrad multibeam vendor format
0725_20140419_003557_raw.all.mb56.gz 7.06MB Simrad multibeam vendor format
0726_20140419_013557_raw.all.mb56.gz 7.05MB Simrad multibeam vendor format
0727_20140419_023557_raw.all.mb56.gz 7.07MB Simrad multibeam vendor format
0728_20140419_033557_raw.all.mb56.gz 7.03MB Simrad multibeam vendor format
0729_20140419_043557_raw.all.mb56.gz 7.03MB Simrad multibeam vendor format
0730_20140419_053557_raw.all.mb56.gz 7.14MB Simrad multibeam vendor format
0731_20140419_063556_raw.all.mb56.gz 7.02MB Simrad multibeam vendor format
0732_20140419_073556_raw.all.mb56.gz 7.04MB Simrad multibeam vendor format
0733_20140419_083556_raw.all.mb56.gz 7.02MB Simrad multibeam vendor format
0734_20140419_093556_raw.all.mb56.gz 7.03MB Simrad multibeam vendor format
0735_20140419_103557_raw.all.mb56.gz 7.10MB Simrad multibeam vendor format
0736_20140419_113557_raw.all.mb56.gz 7.05MB Simrad multibeam vendor format
0737_20140419_123556_raw.all.mb56.gz 6.99MB Simrad multibeam vendor format
0738_20140419_133556_raw.all.mb56.gz 6.94MB Simrad multibeam vendor format
0739_20140419_143557_raw.all.mb56.gz 6.89MB Simrad multibeam vendor format
0740_20140419_153556_raw.all.mb56.gz 6.98MB Simrad multibeam vendor format
0741_20140419_163556_raw.all.mb56.gz 7.10MB Simrad multibeam vendor format
0742_20140419_173556_raw.all.mb56.gz 7.10MB Simrad multibeam vendor format
0743_20140419_183556_raw.all.mb56.gz 7.07MB Simrad multibeam vendor format
0744_20140419_193556_raw.all.mb56.gz 6.99MB Simrad multibeam vendor format
0745_20140419_203556_raw.all.mb56.gz 6.93MB Simrad multibeam vendor format
0746_20140419_213556_raw.all.mb56.gz 4.24MB Simrad multibeam vendor format
0747_20140419_221246_raw.all.mb56.gz 7.00MB Simrad multibeam vendor format
0748_20140419_231246_raw.all.mb56.gz 6.98MB Simrad multibeam vendor format
0749_20140420_001246_raw.all.mb56.gz 7.05MB Simrad multibeam vendor format
0750_20140420_011246_raw.all.mb56.gz 7.11MB Simrad multibeam vendor format
0751_20140420_021246_raw.all.mb56.gz 7.13MB Simrad multibeam vendor format
0752_20140420_031246_raw.all.mb56.gz 7.21MB Simrad multibeam vendor format
0753_20140420_041246_raw.all.mb56.gz 7.16MB Simrad multibeam vendor format
0754_20140420_051246_raw.all.mb56.gz 7.14MB Simrad multibeam vendor format
0755_20140420_061246_raw.all.mb56.gz 7.01MB Simrad multibeam vendor format
0756_20140420_071246_raw.all.mb56.gz 7.00MB Simrad multibeam vendor format
0757_20140420_081246_raw.all.mb56.gz 6.96MB Simrad multibeam vendor format
0758_20140420_091246_raw.all.mb56.gz 6.94MB Simrad multibeam vendor format
0759_20140420_101246_raw.all.mb56.gz 7.17MB Simrad multibeam vendor format
0760_20140420_111246_raw.all.mb56.gz 7.22MB Simrad multibeam vendor format
0761_20140420_121246_raw.all.mb56.gz 7.16MB Simrad multibeam vendor format
0762_20140420_131246_raw.all.mb56.gz 7.17MB Simrad multibeam vendor format
0763_20140420_141246_raw.all.mb56.gz 7.14MB Simrad multibeam vendor format
0764_20140420_151246_raw.all.mb56.gz 6.98MB Simrad multibeam vendor format
0765_20140420_161246_raw.all.mb56.gz 7.04MB Simrad multibeam vendor format
0766_20140420_171246_raw.all.mb56.gz 7.02MB Simrad multibeam vendor format
0767_20140420_181246_raw.all.mb56.gz 6.95MB Simrad multibeam vendor format
0768_20140420_191246_raw.all.mb56.gz 6.88MB Simrad multibeam vendor format
0769_20140420_201246_raw.all.mb56.gz 7.03MB Simrad multibeam vendor format
0770_20140420_211246_raw.all.mb56.gz 6.90MB Simrad multibeam vendor format
0771_20140420_221246_raw.all.mb56.gz 2.18MB Simrad multibeam vendor format
0772_20140420_223143_raw.all.mb56.gz 6.90MB Simrad multibeam vendor format
0773_20140420_233143_raw.all.mb56.gz 7.28MB Simrad multibeam vendor format
0774_20140421_003143_raw.all.mb56.gz 7.34MB Simrad multibeam vendor format
0775_20140421_013142_raw.all.mb56.gz 7.32MB Simrad multibeam vendor format
0776_20140421_023142_raw.all.mb56.gz 7.33MB Simrad multibeam vendor format
0777_20140421_033142_raw.all.mb56.gz 7.33MB Simrad multibeam vendor format
0778_20140421_043142_raw.all.mb56.gz 7.11MB Simrad multibeam vendor format
0779_20140421_053143_raw.all.mb56.gz 7.22MB Simrad multibeam vendor format
0780_20140421_063142_raw.all.mb56.gz 7.20MB Simrad multibeam vendor format
0781_20140421_073143_raw.all.mb56.gz 6.98MB Simrad multibeam vendor format
0782_20140421_083142_raw.all.mb56.gz 6.94MB Simrad multibeam vendor format
0783_20140421_093142_raw.all.mb56.gz 6.98MB Simrad multibeam vendor format
0784_20140421_103143_raw.all.mb56.gz 7.12MB Simrad multibeam vendor format
0785_20140421_113142_raw.all.mb56.gz 7.36MB Simrad multibeam vendor format
0786_20140421_123142_raw.all.mb56.gz 7.43MB Simrad multibeam vendor format
0787_20140421_133143_raw.all.mb56.gz 7.32MB Simrad multibeam vendor format
0788_20140421_143142_raw.all.mb56.gz 7.40MB Simrad multibeam vendor format
0789_20140421_153142_raw.all.mb56.gz 7.32MB Simrad multibeam vendor format
0790_20140421_163143_raw.all.mb56.gz 7.23MB Simrad multibeam vendor format
0791_20140421_173142_raw.all.mb56.gz 7.22MB Simrad multibeam vendor format
0792_20140421_183143_raw.all.mb56.gz 7.22MB Simrad multibeam vendor format
0793_20140421_193143_raw.all.mb56.gz 7.14MB Simrad multibeam vendor format
0794_20140421_203142_raw.all.mb56.gz 7.21MB Simrad multibeam vendor format
0795_20140421_213142_raw.all.mb56.gz 7.50MB Simrad multibeam vendor format
0796_20140421_223143_raw.all.mb56.gz 7.44MB Simrad multibeam vendor format
0797_20140421_233143_raw.all.mb56.gz 7.43MB Simrad multibeam vendor format
0798_20140422_003142_raw.all.mb56.gz 7.28MB Simrad multibeam vendor format
0799_20140422_013142_raw.all.mb56.gz 7.35MB Simrad multibeam vendor format
0800_20140422_023143_raw.all.mb56.gz 7.38MB Simrad multibeam vendor format
0801_20140422_033143_raw.all.mb56.gz 7.31MB Simrad multibeam vendor format
0802_20140422_043142_raw.all.mb56.gz 7.28MB Simrad multibeam vendor format
0803_20140422_053142_raw.all.mb56.gz 7.27MB Simrad multibeam vendor format
0804_20140422_063142_raw.all.mb56.gz 5.87MB Simrad multibeam vendor format
0805_20140422_072011_raw.all.mb56.gz 7.18MB Simrad multibeam vendor format
0806_20140422_081959_raw.all.mb56.gz 7.10MB Simrad multibeam vendor format
0807_20140422_091959_raw.all.mb56.gz 6.99MB Simrad multibeam vendor format
0808_20140422_101959_raw.all.mb56.gz 7.14MB Simrad multibeam vendor format
0809_20140422_112000_raw.all.mb56.gz 7.13MB Simrad multibeam vendor format
0810_20140422_121959_raw.all.mb56.gz 7.08MB Simrad multibeam vendor format
0811_20140422_131959_raw.all.mb56.gz 7.08MB Simrad multibeam vendor format
0812_20140422_141959_raw.all.mb56.gz 6.96MB Simrad multibeam vendor format
0813_20140422_151959_raw.all.mb56.gz 7.16MB Simrad multibeam vendor format
0814_20140422_161959_raw.all.mb56.gz 7.15MB Simrad multibeam vendor format
0815_20140422_171959_raw.all.mb56.gz 7.08MB Simrad multibeam vendor format
0816_20140422_181959_raw.all.mb56.gz 7.04MB Simrad multibeam vendor format
0817_20140422_191959_raw.all.mb56.gz 7.14MB Simrad multibeam vendor format
0818_20140422_201959_raw.all.mb56.gz 6.91MB Simrad multibeam vendor format
0819_20140422_211959_raw.all.mb56.gz 6.93MB Simrad multibeam vendor format
0820_20140422_221959_raw.all.mb56.gz 4.76MB Simrad multibeam vendor format
0821_20140422_230113_raw.all.mb56.gz 6.84MB Simrad multibeam vendor format
0822_20140423_000113_raw.all.mb56.gz 6.87MB Simrad multibeam vendor format
0823_20140423_010113_raw.all.mb56.gz 6.97MB Simrad multibeam vendor format
0824_20140423_020113_raw.all.mb56.gz 6.97MB Simrad multibeam vendor format
0825_20140423_030113_raw.all.mb56.gz 6.98MB Simrad multibeam vendor format
0826_20140423_040113_raw.all.mb56.gz 6.97MB Simrad multibeam vendor format
0827_20140423_050113_raw.all.mb56.gz 6.97MB Simrad multibeam vendor format
0828_20140423_060113_raw.all.mb56.gz 6.94MB Simrad multibeam vendor format
0829_20140423_070113_raw.all.mb56.gz 6.99MB Simrad multibeam vendor format
0830_20140423_080113_raw.all.mb56.gz 6.97MB Simrad multibeam vendor format
0831_20140423_090113_raw.all.mb56.gz 6.99MB Simrad multibeam vendor format
0832_20140423_100113_raw.all.mb56.gz 7.05MB Simrad multibeam vendor format
0833_20140423_110113_raw.all.mb56.gz 7.04MB Simrad multibeam vendor format
0834_20140423_120113_raw.all.mb56.gz 7.06MB Simrad multibeam vendor format
0835_20140423_130113_raw.all.mb56.gz 7.05MB Simrad multibeam vendor format
0836_20140423_140113_raw.all.mb56.gz 6.98MB Simrad multibeam vendor format
0837_20140423_150113_raw.all.mb56.gz 6.88MB Simrad multibeam vendor format
0838_20140423_160113_raw.all.mb56.gz 6.85MB Simrad multibeam vendor format
0839_20140423_170113_raw.all.mb56.gz 6.83MB Simrad multibeam vendor format
0840_20140423_180113_raw.all.mb56.gz 6.85MB Simrad multibeam vendor format
0841_20140423_190113_raw.all.mb56.gz 6.99MB Simrad multibeam vendor format
0842_20140423_200113_raw.all.mb56.gz 7.04MB Simrad multibeam vendor format
0843_20140423_210113_raw.all.mb56.gz 7.01MB Simrad multibeam vendor format
0844_20140423_220113_raw.all.mb56.gz 7.06MB Simrad multibeam vendor format
0845_20140423_230113_raw.all.mb56.gz 6.97MB Simrad multibeam vendor format
0846_20140424_000113_raw.all.mb56.gz 6.85MB Simrad multibeam vendor format
0847_20140424_010113_raw.all.mb56.gz 6.27MB Simrad multibeam vendor format
0848_20140424_015528_raw.all.mb56.gz 6.85MB Simrad multibeam vendor format
0849_20140424_025528_raw.all.mb56.gz 6.88MB Simrad multibeam vendor format
0850_20140424_035528_raw.all.mb56.gz 7.06MB Simrad multibeam vendor format
0851_20140424_045528_raw.all.mb56.gz 7.04MB Simrad multibeam vendor format
0852_20140424_055528_raw.all.mb56.gz 7.02MB Simrad multibeam vendor format
0853_20140424_065528_raw.all.mb56.gz 7.02MB Simrad multibeam vendor format
0854_20140424_075528_raw.all.mb56.gz 6.86MB Simrad multibeam vendor format
0855_20140424_085528_raw.all.mb56.gz 6.78MB Simrad multibeam vendor format
0856_20140424_095528_raw.all.mb56.gz 6.82MB Simrad multibeam vendor format
0857_20140424_105528_raw.all.mb56.gz 6.82MB Simrad multibeam vendor format
0858_20140424_115528_raw.all.mb56.gz 7.06MB Simrad multibeam vendor format
0859_20140424_125528_raw.all.mb56.gz 7.08MB Simrad multibeam vendor format
0860_20140424_135528_raw.all.mb56.gz 7.05MB Simrad multibeam vendor format
0861_20140424_145528_raw.all.mb56.gz 7.12MB Simrad multibeam vendor format
0862_20140424_155528_raw.all.mb56.gz 6.88MB Simrad multibeam vendor format
0863_20140424_165528_raw.all.mb56.gz 6.78MB Simrad multibeam vendor format
0864_20140424_175528_raw.all.mb56.gz 6.83MB Simrad multibeam vendor format
0865_20140424_185528_raw.all.mb56.gz 6.76MB Simrad multibeam vendor format
0866_20140424_195528_raw.all.mb56.gz 6.95MB Simrad multibeam vendor format
0867_20140424_205528_raw.all.mb56.gz 6.98MB Simrad multibeam vendor format
0868_20140424_215528_raw.all.mb56.gz 7.01MB Simrad multibeam vendor format
0869_20140424_225528_raw.all.mb56.gz 7.03MB Simrad multibeam vendor format
0870_20140424_235528_raw.all.mb56.gz 7.05MB Simrad multibeam vendor format
0871_20140425_005528_raw.all.mb56.gz 7.09MB Simrad multibeam vendor format
0872_20140425_015528_raw.all.mb56.gz 6.89MB Simrad multibeam vendor format
0873_20140425_025528_raw.all.mb56.gz 6.86MB Simrad multibeam vendor format
0874_20140425_035528_raw.all.mb56.gz 6.79MB Simrad multibeam vendor format
0875_20140425_045528_raw.all.mb56.gz 6.79MB Simrad multibeam vendor format
0876_20140425_055529_raw.all.mb56.gz 6.95MB Simrad multibeam vendor format
0877_20140425_065529_raw.all.mb56.gz 6.97MB Simrad multibeam vendor format
0878_20140425_075530_raw.all.mb56.gz 7.00MB Simrad multibeam vendor format
0879_20140425_085530_raw.all.mb56.gz 6.99MB Simrad multibeam vendor format
0880_20140425_095530_raw.all.mb56.gz 6.99MB Simrad multibeam vendor format
0881_20140425_105531_raw.all.mb56.gz 6.93MB Simrad multibeam vendor format
0882_20140425_115531_raw.all.mb56.gz 6.85MB Simrad multibeam vendor format
0883_20140425_125531_raw.all.mb56.gz 6.99MB Simrad multibeam vendor format
0884_20140425_135532_raw.all.mb56.gz 6.87MB Simrad multibeam vendor format
0885_20140425_145532_raw.all.mb56.gz 7.04MB Simrad multibeam vendor format
0886_20140425_155532_raw.all.mb56.gz 7.03MB Simrad multibeam vendor format
0887_20140425_165532_raw.all.mb56.gz 7.01MB Simrad multibeam vendor format
0888_20140425_175533_raw.all.mb56.gz 6.99MB Simrad multibeam vendor format
0889_20140425_185533_raw.all.mb56.gz 7.05MB Simrad multibeam vendor format
0890_20140425_195533_raw.all.mb56.gz 7.11MB Simrad multibeam vendor format
0891_20140425_205533_raw.all.mb56.gz 7.13MB Simrad multibeam vendor format
0892_20140425_215533_raw.all.mb56.gz 386.6KB Simrad multibeam vendor format
0893_20140425_215832_raw.all.mb56.gz 7.22MB Simrad multibeam vendor format
0894_20140425_225832_raw.all.mb56.gz 7.30MB Simrad multibeam vendor format
0895_20140425_235832_raw.all.mb56.gz 7.34MB Simrad multibeam vendor format
0896_20140426_005832_raw.all.mb56.gz 7.26MB Simrad multibeam vendor format
0897_20140426_015832_raw.all.mb56.gz 7.24MB Simrad multibeam vendor format
0898_20140426_025832_raw.all.mb56.gz 7.13MB Simrad multibeam vendor format
0899_20140426_035832_raw.all.mb56.gz 7.17MB Simrad multibeam vendor format
0900_20140426_045832_raw.all.mb56.gz 7.51MB Simrad multibeam vendor format
0901_20140426_055832_raw.all.mb56.gz 7.41MB Simrad multibeam vendor format
0902_20140426_065832_raw.all.mb56.gz 7.37MB Simrad multibeam vendor format
0903_20140426_075832_raw.all.mb56.gz 7.30MB Simrad multibeam vendor format
0904_20140426_085832_raw.all.mb56.gz 7.30MB Simrad multibeam vendor format
0905_20140426_095832_raw.all.mb56.gz 7.13MB Simrad multibeam vendor format
0906_20140426_105832_raw.all.mb56.gz 7.13MB Simrad multibeam vendor format
0907_20140426_115832_raw.all.mb56.gz 7.03MB Simrad multibeam vendor format
0908_20140426_125832_raw.all.mb56.gz 7.44MB Simrad multibeam vendor format
0909_20140426_135832_raw.all.mb56.gz 7.64MB Simrad multibeam vendor format
0910_20140426_145832_raw.all.mb56.gz 7.50MB Simrad multibeam vendor format
0911_20140426_155832_raw.all.mb56.gz 7.51MB Simrad multibeam vendor format
0912_20140426_165832_raw.all.mb56.gz 7.50MB Simrad multibeam vendor format
0913_20140426_175832_raw.all.mb56.gz 7.43MB Simrad multibeam vendor format
0914_20140426_185832_raw.all.mb56.gz 7.32MB Simrad multibeam vendor format
0915_20140426_195832_raw.all.mb56.gz 7.50MB Simrad multibeam vendor format
0916_20140426_205832_raw.all.mb56.gz 7.35MB Simrad multibeam vendor format
0917_20140426_215832_raw.all.mb56.gz 7.31MB Simrad multibeam vendor format
0918_20140426_225832_raw.all.mb56.gz 7.50MB Simrad multibeam vendor format
0919_20140426_235832_raw.all.mb56.gz 7.34MB Simrad multibeam vendor format
0920_20140427_005832_raw.all.mb56.gz 7.25MB Simrad multibeam vendor format
0921_20140427_015832_raw.all.mb56.gz 7.33MB Simrad multibeam vendor format
0922_20140427_025832_raw.all.mb56.gz 7.39MB Simrad multibeam vendor format
0923_20140427_035832_raw.all.mb56.gz 7.40MB Simrad multibeam vendor format
0924_20140427_045832_raw.all.mb56.gz 7.47MB Simrad multibeam vendor format
0925_20140427_055832_raw.all.mb56.gz 7.39MB Simrad multibeam vendor format
0926_20140427_065832_raw.all.mb56.gz 7.17MB Simrad multibeam vendor format
0927_20140427_075832_raw.all.mb56.gz 7.19MB Simrad multibeam vendor format
0928_20140427_085832_raw.all.mb56.gz 7.25MB Simrad multibeam vendor format
0929_20140427_095832_raw.all.mb56.gz 7.13MB Simrad multibeam vendor format
0930_20140427_105832_raw.all.mb56.gz 7.18MB Simrad multibeam vendor format
0931_20140427_115832_raw.all.mb56.gz 7.24MB Simrad multibeam vendor format
0932_20140427_125832_raw.all.mb56.gz 7.21MB Simrad multibeam vendor format
0933_20140427_135832_raw.all.mb56.gz 7.25MB Simrad multibeam vendor format
0934_20140427_145832_raw.all.mb56.gz 7.07MB Simrad multibeam vendor format
0935_20140427_155832_raw.all.mb56.gz 7.40MB Simrad multibeam vendor format
0936_20140427_165832_raw.all.mb56.gz 7.53MB Simrad multibeam vendor format
0937_20140427_175832_raw.all.mb56.gz 7.37MB Simrad multibeam vendor format
0938_20140427_185832_raw.all.mb56.gz 7.34MB Simrad multibeam vendor format
0939_20140427_195832_raw.all.mb56.gz 7.27MB Simrad multibeam vendor format
0940_20140427_205832_raw.all.mb56.gz 7.30MB Simrad multibeam vendor format
0941_20140427_215832_raw.all.mb56.gz 7.31MB Simrad multibeam vendor format
0942_20140427_225832_raw.all.mb56.gz 7.34MB Simrad multibeam vendor format
0943_20140427_235832_raw.all.mb56.gz 7.29MB Simrad multibeam vendor format
0944_20140428_005832_raw.all.mb56.gz 7.18MB Simrad multibeam vendor format
0945_20140428_015832_raw.all.mb56.gz 7.18MB Simrad multibeam vendor format
0946_20140428_025832_raw.all.mb56.gz 7.18MB Simrad multibeam vendor format
0947_20140428_035832_raw.all.mb56.gz 7.33MB Simrad multibeam vendor format
0948_20140428_045832_raw.all.mb56.gz 7.34MB Simrad multibeam vendor format
0949_20140428_055832_raw.all.mb56.gz 7.27MB Simrad multibeam vendor format
0950_20140428_065832_raw.all.mb56.gz 7.23MB Simrad multibeam vendor format
0951_20140428_075832_raw.all.mb56.gz 7.09MB Simrad multibeam vendor format
0952_20140428_085832_raw.all.mb56.gz 7.05MB Simrad multibeam vendor format
0953_20140428_095832_raw.all.mb56.gz 7.13MB Simrad multibeam vendor format
0954_20140428_105832_raw.all.mb56.gz 7.18MB Simrad multibeam vendor format
0955_20140428_115832_raw.all.mb56.gz 7.39MB Simrad multibeam vendor format
0956_20140428_125832_raw.all.mb56.gz 7.43MB Simrad multibeam vendor format
0957_20140428_135832_raw.all.mb56.gz 7.48MB Simrad multibeam vendor format
0958_20140428_145832_raw.all.mb56.gz 7.40MB Simrad multibeam vendor format
0959_20140428_155832_raw.all.mb56.gz 7.15MB Simrad multibeam vendor format
0960_20140428_165832_raw.all.mb56.gz 7.10MB Simrad multibeam vendor format
0961_20140428_175832_raw.all.mb56.gz 7.12MB Simrad multibeam vendor format
0962_20140428_185832_raw.all.mb56.gz 7.26MB Simrad multibeam vendor format
0963_20140428_195832_raw.all.mb56.gz 7.33MB Simrad multibeam vendor format
0964_20140428_205832_raw.all.mb56.gz 7.33MB Simrad multibeam vendor format
0965_20140428_215832_raw.all.mb56.gz 7.29MB Simrad multibeam vendor format
0966_20140428_225831_raw.all.mb56.gz 7.36MB Simrad multibeam vendor format
0967_20140428_235832_raw.all.mb56.gz 7.31MB Simrad multibeam vendor format
0968_20140429_005832_raw.all.mb56.gz 7.23MB Simrad multibeam vendor format
0969_20140429_015831_raw.all.mb56.gz 7.18MB Simrad multibeam vendor format
0970_20140429_025832_raw.all.mb56.gz 7.24MB Simrad multibeam vendor format
0971_20140429_035831_raw.all.mb56.gz 6.52MB Simrad multibeam vendor format
0972_20140429_045303_raw.all.mb56.gz 7.32MB Simrad multibeam vendor format
0973_20140429_055303_raw.all.mb56.gz 7.33MB Simrad multibeam vendor format
0974_20140429_065303_raw.all.mb56.gz 7.31MB Simrad multibeam vendor format
0975_20140429_075302_raw.all.mb56.gz 7.18MB Simrad multibeam vendor format
0976_20140429_085302_raw.all.mb56.gz 7.22MB Simrad multibeam vendor format
0977_20140429_095303_raw.all.mb56.gz 7.47MB Simrad multibeam vendor format
0978_20140429_105303_raw.all.mb56.gz 7.36MB Simrad multibeam vendor format
0979_20140429_115303_raw.all.mb56.gz 7.32MB Simrad multibeam vendor format
0980_20140429_125302_raw.all.mb56.gz 7.45MB Simrad multibeam vendor format
0981_20140429_135303_raw.all.mb56.gz 7.50MB Simrad multibeam vendor format
0982_20140429_145303_raw.all.mb56.gz 7.48MB Simrad multibeam vendor format
0983_20140429_155302_raw.all.mb56.gz 7.53MB Simrad multibeam vendor format
0984_20140429_165302_raw.all.mb56.gz 7.26MB Simrad multibeam vendor format
0985_20140429_175303_raw.all.mb56.gz 7.25MB Simrad multibeam vendor format
0986_20140429_185303_raw.all.mb56.gz 7.31MB Simrad multibeam vendor format
0987_20140429_195303_raw.all.mb56.gz 7.24MB Simrad multibeam vendor format
0988_20140429_205302_raw.all.mb56.gz 7.23MB Simrad multibeam vendor format
0989_20140429_215302_raw.all.mb56.gz 7.49MB Simrad multibeam vendor format
0990_20140429_225303_raw.all.mb56.gz 7.46MB Simrad multibeam vendor format
0991_20140429_235303_raw.all.mb56.gz 7.37MB Simrad multibeam vendor format
0992_20140430_005302_raw.all.mb56.gz 7.48MB Simrad multibeam vendor format
0993_20140430_015302_raw.all.mb56.gz 7.53MB Simrad multibeam vendor format
0994_20140430_025302_raw.all.mb56.gz 7.43MB Simrad multibeam vendor format
0995_20140430_035302_raw.all.mb56.gz 7.45MB Simrad multibeam vendor format
0996_20140430_045303_raw.all.mb56.gz 7.38MB Simrad multibeam vendor format
0997_20140430_055303_raw.all.mb56.gz 7.29MB Simrad multibeam vendor format
0998_20140430_065302_raw.all.mb56.gz 7.19MB Simrad multibeam vendor format
0999_20140430_075303_raw.all.mb56.gz 7.20MB Simrad multibeam vendor format
1000_20140430_085303_raw.all.mb56.gz 7.24MB Simrad multibeam vendor format
1001_20140430_095303_raw.all.mb56.gz 7.39MB Simrad multibeam vendor format
1002_20140430_105302_raw.all.mb56.gz 7.40MB Simrad multibeam vendor format
1003_20140430_115303_raw.all.mb56.gz 7.33MB Simrad multibeam vendor format
1004_20140430_125303_raw.all.mb56.gz 7.35MB Simrad multibeam vendor format
1005_20140430_135303_raw.all.mb56.gz 7.46MB Simrad multibeam vendor format
1006_20140430_145303_raw.all.mb56.gz 7.22MB Simrad multibeam vendor format
1007_20140430_155303_raw.all.mb56.gz 7.17MB Simrad multibeam vendor format
1008_20140430_165303_raw.all.mb56.gz 7.19MB Simrad multibeam vendor format
1009_20140430_175303_raw.all.mb56.gz 7.34MB Simrad multibeam vendor format
1010_20140430_185302_raw.all.mb56.gz 7.30MB Simrad multibeam vendor format
1011_20140430_195302_raw.all.mb56.gz 7.32MB Simrad multibeam vendor format
1012_20140430_205302_raw.all.mb56.gz 7.35MB Simrad multibeam vendor format
1013_20140430_215303_raw.all.mb56.gz 3.96MB Simrad multibeam vendor format
1014_20140430_222541_raw.all.mb56.gz 7.10MB Simrad multibeam vendor format
1015_20140430_232541_raw.all.mb56.gz 6.99MB Simrad multibeam vendor format
1016_20140501_002541_raw.all.mb56.gz 6.98MB Simrad multibeam vendor format
1017_20140501_012541_raw.all.mb56.gz 7.02MB Simrad multibeam vendor format
1018_20140501_022541_raw.all.mb56.gz 7.15MB Simrad multibeam vendor format
1019_20140501_032541_raw.all.mb56.gz 7.14MB Simrad multibeam vendor format
1020_20140501_042541_raw.all.mb56.gz 7.03MB Simrad multibeam vendor format
1021_20140501_052540_raw.all.mb56.gz 7.17MB Simrad multibeam vendor format
1022_20140501_062541_raw.all.mb56.gz 7.33MB Simrad multibeam vendor format
1023_20140501_072541_raw.all.mb56.gz 7.33MB Simrad multibeam vendor format
1024_20140501_082541_raw.all.mb56.gz 7.30MB Simrad multibeam vendor format
1025_20140501_092541_raw.all.mb56.gz 7.35MB Simrad multibeam vendor format
1026_20140501_102540_raw.all.mb56.gz 7.13MB Simrad multibeam vendor format
1027_20140501_112541_raw.all.mb56.gz 7.16MB Simrad multibeam vendor format
1028_20140501_122541_raw.all.mb56.gz 7.55MB Simrad multibeam vendor format
1029_20140501_132540_raw.all.mb56.gz 7.47MB Simrad multibeam vendor format
1030_20140501_142540_raw.all.mb56.gz 7.49MB Simrad multibeam vendor format
1031_20140501_152541_raw.all.mb56.gz 7.51MB Simrad multibeam vendor format
1032_20140501_162540_raw.all.mb56.gz 7.52MB Simrad multibeam vendor format
1033_20140501_172541_raw.all.mb56.gz 7.18MB Simrad multibeam vendor format
1034_20140501_182541_raw.all.mb56.gz 7.03MB Simrad multibeam vendor format
1035_20140501_192540_raw.all.mb56.gz 7.04MB Simrad multibeam vendor format
1036_20140501_202541_raw.all.mb56.gz 7.27MB Simrad multibeam vendor format
1037_20140501_212541_raw.all.mb56.gz 7.43MB Simrad multibeam vendor format
1038_20140501_222541_raw.all.mb56.gz 7.37MB Simrad multibeam vendor format
1039_20140501_232541_raw.all.mb56.gz 7.49MB Simrad multibeam vendor format
1040_20140502_002541_raw.all.mb56.gz 7.51MB Simrad multibeam vendor format
1041_20140502_012540_raw.all.mb56.gz 7.55MB Simrad multibeam vendor format
1042_20140502_022541_raw.all.mb56.gz 7.39MB Simrad multibeam vendor format
1043_20140502_032541_raw.all.mb56.gz 7.25MB Simrad multibeam vendor format
1044_20140502_042540_raw.all.mb56.gz 7.36MB Simrad multibeam vendor format
1045_20140502_052541_raw.all.mb56.gz 5.09MB Simrad multibeam vendor format
1046_20140502_060646_raw.all.mb56.gz 7.50MB Simrad multibeam vendor format
1047_20140502_070646_raw.all.mb56.gz 7.51MB Simrad multibeam vendor format
1048_20140502_080647_raw.all.mb56.gz 7.52MB Simrad multibeam vendor format
1049_20140502_090647_raw.all.mb56.gz 7.48MB Simrad multibeam vendor format
1050_20140502_100647_raw.all.mb56.gz 7.55MB Simrad multibeam vendor format
1051_20140502_110647_raw.all.mb56.gz 7.45MB Simrad multibeam vendor format
1052_20140502_120648_raw.all.mb56.gz 7.45MB Simrad multibeam vendor format
1053_20140502_130648_raw.all.mb56.gz 7.53MB Simrad multibeam vendor format
1054_20140502_140648_raw.all.mb56.gz 7.58MB Simrad multibeam vendor format
1055_20140502_150649_raw.all.mb56.gz 7.52MB Simrad multibeam vendor format
1056_20140502_160649_raw.all.mb56.gz 7.58MB Simrad multibeam vendor format
1057_20140502_170649_raw.all.mb56.gz 7.55MB Simrad multibeam vendor format
1058_20140502_180649_raw.all.mb56.gz 7.53MB Simrad multibeam vendor format
1059_20140502_190649_raw.all.mb56.gz 7.56MB Simrad multibeam vendor format
1060_20140502_200649_raw.all.mb56.gz 7.57MB Simrad multibeam vendor format
1061_20140502_210649_raw.all.mb56.gz 7.53MB Simrad multibeam vendor format
1062_20140502_220649_raw.all.mb56.gz 7.55MB Simrad multibeam vendor format
1063_20140502_230649_raw.all.mb56.gz 7.75MB Simrad multibeam vendor format
1064_20140503_000649_raw.all.mb56.gz 8.03MB Simrad multibeam vendor format
1065_20140503_010649_raw.all.mb56.gz 7.98MB Simrad multibeam vendor format
1066_20140503_020649_raw.all.mb56.gz 7.81MB Simrad multibeam vendor format
1067_20140503_030649_raw.all.mb56.gz 7.65MB Simrad multibeam vendor format
1068_20140503_040649_raw.all.mb56.gz 7.68MB Simrad multibeam vendor format
1069_20140503_050649_raw.all.mb56.gz 8.29MB Simrad multibeam vendor format
1070_20140503_060649_raw.all.mb56.gz 7.99MB Simrad multibeam vendor format
1071_20140503_070649_raw.all.mb56.gz 8.12MB Simrad multibeam vendor format
1072_20140503_080649_raw.all.mb56.gz 8.14MB Simrad multibeam vendor format
1073_20140503_090649_raw.all.mb56.gz 8.00MB Simrad multibeam vendor format
1074_20140503_100649_raw.all.mb56.gz 7.90MB Simrad multibeam vendor format
1075_20140503_110649_raw.all.mb56.gz 7.95MB Simrad multibeam vendor format
1076_20140503_120649_raw.all.mb56.gz 8.20MB Simrad multibeam vendor format
1077_20140503_130649_raw.all.mb56.gz 8.28MB Simrad multibeam vendor format
1078_20140503_140649_raw.all.mb56.gz 7.66MB Simrad multibeam vendor format
1079_20140503_150649_raw.all.mb56.gz 7.70MB Simrad multibeam vendor format
1080_20140503_160649_raw.all.mb56.gz 7.66MB Simrad multibeam vendor format
1081_20140503_170649_raw.all.mb56.gz 7.55MB Simrad multibeam vendor format
1082_20140503_180649_raw.all.mb56.gz 7.53MB Simrad multibeam vendor format
1083_20140503_190649_raw.all.mb56.gz 7.49MB Simrad multibeam vendor format
1084_20140503_200649_raw.all.mb56.gz 7.55MB Simrad multibeam vendor format
1085_20140503_210649_raw.all.mb56.gz 7.58MB Simrad multibeam vendor format
1086_20140503_220649_raw.all.mb56.gz 7.72MB Simrad multibeam vendor format
1087_20140503_230649_raw.all.mb56.gz 7.63MB Simrad multibeam vendor format
1088_20140504_000649_raw.all.mb56.gz 7.64MB Simrad multibeam vendor format
1089_20140504_010649_raw.all.mb56.gz 7.67MB Simrad multibeam vendor format
1090_20140504_020649_raw.all.mb56.gz 7.61MB Simrad multibeam vendor format
1091_20140504_030649_raw.all.mb56.gz 7.55MB Simrad multibeam vendor format
1092_20140504_040650_raw.all.mb56.gz 7.54MB Simrad multibeam vendor format
1093_20140504_050650_raw.all.mb56.gz 7.50MB Simrad multibeam vendor format
1094_20140504_060650_raw.all.mb56.gz 7.56MB Simrad multibeam vendor format
1095_20140504_070650_raw.all.mb56.gz 7.56MB Simrad multibeam vendor format
1096_20140504_080650_raw.all.mb56.gz 7.61MB Simrad multibeam vendor format
1097_20140504_090650_raw.all.mb56.gz 7.59MB Simrad multibeam vendor format
1098_20140504_100650_raw.all.mb56.gz 7.58MB Simrad multibeam vendor format
1099_20140504_110650_raw.all.mb56.gz 7.58MB Simrad multibeam vendor format
1100_20140504_120650_raw.all.mb56.gz 7.57MB Simrad multibeam vendor format
1101_20140504_130650_raw.all.mb56.gz 7.58MB Simrad multibeam vendor format
1102_20140504_140650_raw.all.mb56.gz 7.59MB Simrad multibeam vendor format
1103_20140504_150650_raw.all.mb56.gz 7.62MB Simrad multibeam vendor format
1104_20140504_160650_raw.all.mb56.gz 7.57MB Simrad multibeam vendor format
1105_20140504_170650_raw.all.mb56.gz 2.03MB Simrad multibeam vendor format

Metadata Files: 3

Files File Size Description
NBP1403_Multibeam.xml NGDC created ISO metadata
NBP1403.xml 11.7KB XML metadata file
mb_bag_info.tar.gz 30.1KB Additional cruise information